GFSMW_sfc_thetae_036.txt.gz
Theta_e
319 320 320 321 318 318 317 318 319 320 321 321 320 323 318 321 322 329 331 331 331 329 327 326 323 321 319 317 317 312 308 305 305 304 304 305 306 305 304 303 302 302 302
317 318 319 321 320 319 320 322 323 324 323 324 325 325 321 321 323 330 331 330 329 327 327 325 322 321 319 317 315 311 307 307 307 304 304 301 301 303 304 302 302 300 301
315 318 319 320 322 321 322 323 325 325 326 326 327 326 323 322 321 328 329 329 330 329 325 325 323 321 320 316 314 311 308 304 305 306 302 299 298 300 302 302 300 300 299
316 318 319 321 321 323 324 324 324 324 325 326 323 323 318 316 321 327 329 329 330 328 326 325 324 322 319 316 313 312 308 306 303 307 308 305 304 297 294 299 300 300 300
317 316 318 321 324 325 325 325 326 325 327 327 327 324 320 320 322 326 327 327 328 328 326 325 322 320 317 314 313 310 308 307 305 303 302 304 305 301 297 293 297 297 298
317 319 320 321 323 325 326 327 326 326 327 327 327 326 322 322 323 324 325 325 325 327 325 322 320 313 311 309 308 309 307 307 306 305 304 304 302 298 296 294 294 295 296
317 317 319 319 321 322 324 326 326 325 327 328 328 327 327 325 324 325 326 324 323 320 317 313 311 311 310 309 308 307 306 305 303 304 305 306 303 301 299 295 292 291 293
318 318 318 321 322 322 324 325 325 325 326 327 328 329 327 327 327 326 325 324 321 317 313 312 311 310 308 306 306 305 304 304 303 303 303 304 302 301 299 296 292 289 291
317 318 320 320 323 325 326 326 326 326 326 327 327 327 330 327 325 326 326 323 318 313 312 311 310 308 306 305 304 303 303 303 303 303 304 301 301 301 299 297 296 292 286
316 318 320 321 322 324 327 329 329 327 328 328 329 329 327 327 327 326 326 320 315 313 312 311 310 306 304 304 304 302 303 303 302 302 301 301 301 300 299 296 295 294 290
316 317 318 319 323 324 324 328 329 329 329 329 329 329 325 323 322 327 324 317 315 314 312 310 307 305 304 304 302 302 302 302 301 300 300 300 301 301 299 296 295 293 292
315 318 319 320 320 322 325 328 329 330 331 330 328 328 328 329 325 322 320 318 316 314 311 309 307 305 303 303 301 301 302 300 299 300 299 299 301 299 299 297 293 292 292
313 317 319 320 320 321 323 325 329 330 331 331 328 327 325 322 321 319 317 316 314 312 310 307 305 302 301 300 300 301 300 299 299 299 298 298 299 298 297 295 293 292 295
311 314 318 320 322 323 324 326 327 328 328 327 324 324 322 321 319 317 314 307 304 302 301 302 302 301 301 300 300 301 299 298 299 299 298 298 299 295 295 295 295 294 292
311 313 318 320 322 323 324 325 326 326 326 324 323 320 320 320 318 315 312 308 305 302 301 300 300 299 299 300 298 299 298 297 296 297 299 299 298 296 295 295 292 292 292
311 314 317 321 322 323 323 323 322 322 322 320 318 319 319 317 315 312 310 308 305 304 300 299 297 297 298 293 296 297 297 296 296 294 296 297 296 296 294 293 293 292 291
313 316 319 320 321 321 320 317 317 317 315 314 314 313 312 309 308 306 304 302 301 300 297 297 297 297 296 294 293 292 294 293 292 293 294 295 296 295 295 293 291 290 290
313 315 315 315 316 316 314 314 314 312 311 310 310 309 308 306 304 302 299 298 297 296 296 296 297 296 297 293 292 290 291 292 293 293 293 293 294 292 291 290 289 290 291
313 313 313 312 312 311 311 310 309 308 307 306 306 306 305 303 301 300 299 299 298 298 298 298 297 297 294 292 291 291 292 293 292 292 291 290 289 289 289 287 286 287 289
311 310 310 310 309 308 308 306 305 305 304 304 304 305 304 303 301 300 299 299 299 298 298 296 295 293 295 292 290 289 287 285 283 285 287 287 287 287 287 283 282 282 284
309 309 308 307 307 308 307 304 304 302 304 304 304 303 301 300 299 299 299 297 296 296 293 293 294 295 289 286 286 285 282 280 280 281 281 282 285 285 284 284 281 280 282
307 307 306 306 306 307 305 303 301 303 302 302 301 300 300 299 298 297 297 296 294 292 290 289 288 289 286 285 284 283 282 282 279 279 280 281 282 282 282 282 283 284 283
305 307 305 304 305 305 304 301 301 301 301 299 298 297 296 296 295 293 292 291 291 288 285 284 284 284 284 283 283 281 281 281 278 279 280 280 280 281 281 284 284 283 282
305 305 304 303 302 303 303 302 301 300 297 295 294 293 292 291 291 290 289 288 284 283 283 283 281 281 281 278 278 277 277 278 278 278 277 277 279 279 279 280 280 280 280
304 304 302 301 301 301 299 299 298 297 294 293 291 290 289 288 286 283 283 282 280 280 281 280 280 277 276 276 277 276 276 275 277 275 275 277 277 277 276 276 277 277 277
303 302 301 299 298 297 296 296 296 294 291 289 288 286 286 285 286 283 281 282 280 280 279 279 278 278 277 276 277 277 277 277 278 275 274 273 273 273 274 274 274 274 274

GFSMW_sfc_thetae_039.txt.gz
Theta_e
315 314 313 314 312 310 311 313 312 311 313 310 311 311 311 316 318 320 327 327 326 327 323 321 319 318 316 314 311 310 304 302 302 301 300 300 301 301 300 300 299 300 299
313 314 314 312 311 309 310 310 311 311 314 313 312 312 317 315 318 318 325 327 327 326 324 321 317 316 315 314 311 307 303 302 301 299 300 298 299 300 301 300 300 298 298
312 313 314 312 311 310 310 310 311 317 315 316 315 318 318 314 315 317 322 326 323 320 324 321 318 316 316 313 310 306 305 301 302 302 301 297 295 296 299 301 299 297 297
314 314 315 313 312 313 315 316 317 320 319 319 319 319 319 316 315 316 323 323 324 323 324 322 320 318 316 314 311 310 307 305 301 303 306 303 302 295 293 299 299 297 297
313 314 314 316 316 315 316 318 320 321 320 320 321 320 318 317 316 319 323 324 324 325 324 321 319 317 316 314 313 310 307 308 306 304 303 304 304 302 298 293 295 296 297
313 315 316 317 318 318 318 319 320 321 321 322 322 321 319 314 313 314 322 323 324 324 323 322 321 318 310 309 309 309 308 307 307 305 304 304 303 301 299 294 292 294 296
312 314 315 317 317 318 318 319 319 318 320 321 322 322 320 316 316 317 319 321 320 318 321 318 314 310 310 310 310 307 304 305 304 304 305 306 305 305 301 298 291 290 291
313 313 315 316 318 319 320 320 320 320 321 321 322 322 322 320 319 319 319 320 322 322 316 312 311 309 311 308 306 305 304 304 304 303 304 305 305 304 299 296 293 288 288
310 312 315 316 317 319 320 321 322 322 322 322 322 323 323 322 321 322 323 323 323 316 313 311 309 307 305 305 303 303 304 303 303 303 303 303 303 301 299 298 295 290 285
311 313 314 316 317 318 320 321 322 322 323 323 323 324 324 323 323 322 318 319 315 315 312 312 311 309 305 303 304 303 303 303 303 303 302 301 301 300 299 297 294 293 289
307 309 312 313 317 319 319 320 321 322 324 323 323 323 324 325 325 323 321 318 314 313 312 313 310 304 303 304 303 302 303 302 301 301 300 300 300 299 299 297 295 293 292
309 309 310 311 312 315 320 320 322 323 319 320 324 324 322 322 319 320 317 315 312 313 313 311 308 306 304 303 302 301 301 300 300 299 299 299 300 298 298 298 295 292 291
308 310 311 312 312 313 316 321 324 324 322 321 323 323 323 324 320 318 317 314 313 313 310 308 306 304 303 302 301 301 301 300 300 299 298 298 297 296 296 294 293 294 294
307 310 311 312 313 315 317 320 321 323 324 324 322 319 318 317 316 315 313 310 309 308 308 306 304 303 301 301 300 300 299 298 299 299 298 297 297 296 296 294 291 292 290
305 309 311 312 315 317 318 319 319 320 323 321 319 316 316 316 313 311 308 305 305 303 302 301 301 301 300 300 300 300 299 297 297 297 297 298 297 296 294 294 294 293 291
305 307 314 315 317 317 317 317 317 317 318 316 316 317 316 315 313 310 307 304 302 301 300 299 299 298 299 294 295 297 297 296 295 295 294 294 296 295 293 293 292 292 290
306 309 315 316 317 317 316 314 313 312 312 312 311 309 308 306 304 305 305 303 300 296 294 294 293 293 293 293 293 293 294 292 290 289 290 294 295 292 292 289 288 288 289
309 313 313 312 313 313 312 310 310 309 308 307 306 306 304 302 299 297 295 294 294 293 293 293 294 293 293 292 292 290 290 289 291 293 293 289 288 287 286 285 283 284 285
309 308 308 309 308 309 308 308 306 306 305 304 304 303 301 298 297 295 294 293 293 293 292 294 293 293 292 292 290 290 290 292 288 287 286 285 284 287 286 282 280 280 279
308 307 307 306 306 304 305 304 302 302 302 302 301 301 300 298 297 295 294 294 294 294 296 294 295 292 292 290 290 288 282 281 279 281 283 284 283 285 284 280 278 277 278
306 305 305 303 302 302 302 300 299 299 301 302 300 299 298 297 296 296 294 293 292 292 289 290 290 287 284 284 285 283 279 279 279 279 278 279 282 282 282 282 279 279 281
304 303 302 301 301 301 301 298 298 299 299 299 298 297 297 297 296 294 293 294 292 289 286 284 283 282 282 283 282 282 281 280 278 278 278 278 280 281 282 281 282 282 280
302 302 301 300 300 300 300 297 297 299 298 297 296 296 296 296 295 292 289 288 287 283 282 283 282 279 279 278 279 279 279 279 277 278 278 279 279 280 279 280 280 278 277
300 301 301 299 298 299 299 298 298 298 296 294 291 290 288 287 286 287 285 282 280 280 280 280 279 278 275 275 275 276 275 277 277 277 275 275 277 277 276 277 277 277 276
300 301 299 298 296 298 297 297 296 294 291 289 288 286 284 282 281 281 280 278 279 280 278 277 278 275 273 275 276 276 276 274 276 271 271 273 274 275 275 275 275 274 274
299 298 297 295 294 294 293 293 293 291 288 286 285 282 281 281 280 279 279 281 281 281 280 280 278 278 277 277 277 277 277 278 278 274 269 267 266 270 272 271 271 271 271

GFSMW_sfc_thetae_042.txt.gz
Theta_e
312 312 311 311 312 311 311 312 313 314 314 314 315 313 311 309 311 312 316 321 321 324 321 319 319 316 315 314 311 308 305 302 302 299 298 298 299 299 298 298 300 301 303
311 311 310 309 309 309 311 311 312 312 313 314 314 312 312 310 312 314 317 323 324 324 322 320 319 316 314 312 310 307 302 301 300 298 298 296 299 299 299 298 298 297 302
310 310 310 309 308 308 309 311 312 311 312 313 311 308 310 312 312 314 316 320 324 324 324 320 318 316 315 313 310 306 304 301 300 301 300 295 295 297 298 299 299 299 297
312 311 310 309 308 308 310 311 312 311 312 312 310 309 310 309 313 316 317 319 323 323 322 321 319 316 315 312 311 307 304 304 302 304 306 304 302 296 294 297 300 299 297
311 311 311 310 310 309 308 309 311 311 312 313 311 310 309 312 316 312 314 318 320 322 320 320 319 316 315 314 312 306 305 307 306 305 303 304 304 301 299 295 297 298 298
312 313 314 313 310 310 309 309 309 310 315 313 314 313 313 315 317 313 314 317 320 321 321 321 320 318 317 315 312 309 306 306 305 305 305 304 303 302 300 296 296 295 297
312 312 313 312 311 310 310 311 312 312 316 317 315 315 317 318 317 315 315 316 318 317 319 322 320 318 315 314 312 309 308 305 305 304 305 306 304 303 302 299 298 294 293
312 312 313 314 314 312 312 313 314 315 316 317 317 317 318 319 319 318 315 320 321 321 322 322 320 318 312 310 311 308 307 305 305 305 305 305 305 304 302 298 296 291 290
310 312 314 314 315 316 314 314 315 317 318 318 318 318 319 320 320 318 317 319 322 322 320 318 316 313 312 310 308 307 305 305 305 305 305 304 304 304 302 299 297 293 288
311 311 313 315 316 317 318 318 317 317 318 319 320 320 320 321 322 319 319 319 315 316 315 313 312 309 309 307 307 306 304 304 304 304 303 302 302 301 300 299 298 295 292
307 310 312 315 317 318 318 318 318 319 319 320 321 320 321 321 321 319 319 317 317 316 314 311 309 308 307 306 305 304 304 303 302 302 302 301 300 299 299 299 298 296 293
305 309 310 312 314 315 317 319 319 320 321 322 322 321 320 319 320 320 319 318 318 318 315 312 312 308 306 305 303 302 303 302 301 300 299 299 300 298 298 298 296 295 295
306 307 307 309 312 313 315 316 319 320 321 321 322 322 322 321 322 322 320 321 320 318 313 312 310 307 306 304 302 302 301 301 300 300 299 298 298 296 296 296 295 294 293
306 307 307 309 310 312 315 316 317 320 320 319 319 320 320 322 323 323 319 317 314 312 311 309 307 305 303 302 302 301 300 300 299 299 299 298 296 296 295 295 293 293 291
302 307 308 309 311 314 316 318 318 320 321 319 319 318 320 322 319 315 313 311 311 309 308 306 304 302 301 301 300 300 299 298 298 298 297 297 297 296 294 294 293 292 291
302 307 309 310 314 316 315 316 317 317 320 321 321 318 317 316 313 310 307 305 305 304 302 301 300 299 300 294 295 298 298 297 296 295 295 295 295 295 291 289 289 287 284
302 303 310 312 315 316 315 314 314 315 315 316 316 315 313 311 309 307 305 303 300 299 298 298 298 297 298 293 294 294 296 294 293 291 292 293 292 289 288 286 286 285 286
302 307 311 312 314 312 311 311 312 311 309 309 308 308 307 306 305 302 299 295 296 295 292 292 293 293 293 292 292 290 290 289 290 291 289 287 286 286 283 281 280 280 280
305 310 313 311 311 310 309 309 307 306 306 305 304 304 302 300 298 295 294 293 293 292 292 293 292 291 290 291 290 289 288 287 285 286 286 284 282 284 284 280 278 278 279
308 308 308 309 307 305 306 305 303 303 302 301 299 299 298 296 294 293 292 292 291 292 293 291 291 290 288 290 290 290 286 282 281 281 281 282 281 282 282 279 278 277 278
306 306 307 307 304 304 304 302 301 299 300 299 298 297 296 295 294 293 293 292 291 290 288 287 286 285 285 285 285 284 280 279 279 278 278 278 280 281 281 282 279 279 279
303 304 303 301 301 302 302 299 298 298 298 298 297 296 295 296 295 293 293 292 291 286 284 282 281 281 281 283 283 282 281 279 278 278 278 278 280 281 281 280 280 280 278
302 303 301 299 298 300 301 297 296 297 297 296 295 295 295 295 294 292 290 289 287 284 282 280 278 277 277 277 280 280 279 278 277 278 278 278 279 279 279 279 278 276 276
300 300 299 298 296 297 298 297 297 297 296 294 293 290 286 285 285 284 285 283 281 281 282 280 278 276 275 275 276 276 277 277 277 277 276 276 277 276 276 276 276 276 274
299 300 298 296 295 296 296 296 295 294 290 288 285 283 282 282 279 278 279 280 280 281 280 279 279 275 274 276 277 277 276 275 277 273 272 274 273 273 273 274 274 273 272
298 296 295 294 293 293 292 292 291 289 286 284 282 280 280 280 279 278 278 282 282 282 281 280 278 278 278 278 277 277 277 278 278 274 271 268 267 269 271 270 270 270 269

GFSMW_sfc_thetae_045.txt.gz
Theta_e
310 311 313 313 313 313 314 314 315 315 316 315 315 314 312 312 312 313 316 316 318 320 318 317 317 315 314 312 311 306 305 302 301 299 298 298 298 298 298 299 302 304 305
308 309 309 310 309 311 312 313 314 315 315 316 315 315 311 311 311 312 312 317 319 319 319 318 317 315 312 310 309 307 302 301 300 298 296 294 297 298 300 297 298 299 302
309 309 309 308 307 307 309 311 313 314 315 315 311 309 311 311 309 309 310 313 318 320 320 318 318 315 313 311 309 306 304 300 299 300 300 294 295 299 300 299 299 298 298
311 310 309 308 306 307 309 311 312 313 313 311 309 309 309 308 309 308 310 312 317 320 322 320 318 316 314 311 311 308 304 303 299 302 304 304 301 298 297 297 300 300 299
311 310 309 310 308 308 308 310 311 311 312 311 310 308 307 309 309 310 311 312 315 319 320 320 318 317 315 313 312 309 309 305 304 303 303 303 303 301 299 295 299 298 300
311 313 312 311 309 308 308 309 310 311 311 311 310 309 308 307 309 311 312 313 313 316 318 318 318 317 315 313 314 313 309 307 306 305 304 302 303 301 299 295 294 296 299
310 311 310 310 309 307 307 308 309 309 311 311 311 310 309 308 309 312 313 313 313 313 317 317 316 316 317 316 314 312 310 308 306 305 306 306 306 305 303 300 296 296 296
310 311 312 311 310 309 307 308 308 308 310 311 311 312 312 311 311 312 314 314 314 316 316 318 319 320 318 314 313 313 311 309 307 305 306 306 306 305 303 301 298 293 292
310 311 312 313 312 310 309 307 308 308 309 309 313 312 313 312 313 314 315 315 316 318 317 317 319 320 318 316 313 312 309 308 307 306 307 306 306 305 303 300 297 294 290
309 311 312 313 314 313 311 311 309 309 310 310 312 314 314 315 315 316 316 315 315 316 315 315 315 315 314 313 312 310 308 307 306 306 306 305 304 301 301 298 298 296 293
308 310 312 314 315 315 313 311 311 311 311 313 314 315 316 316 317 318 319 316 315 316 316 316 314 312 312 308 308 306 304 305 304 304 304 303 302 300 299 299 298 297 295
306 310 310 313 314 314 315 314 313 313 314 316 317 317 318 319 319 319 319 318 318 318 316 315 312 310 308 307 307 304 304 304 303 303 302 300 300 298 298 298 296 296 296
303 305 307 309 312 314 315 316 317 316 317 317 317 318 319 319 319 320 320 319 320 319 319 319 314 311 310 306 305 305 303 303 302 301 300 299 298 296 296 296 295 294 294
303 303 305 308 311 313 314 315 317 318 318 318 318 318 319 320 320 320 320 320 320 319 318 314 312 310 307 306 304 303 302 301 301 300 299 299 297 296 295 295 293 293 290
301 303 304 305 307 309 312 313 315 317 318 318 318 319 320 321 320 320 320 320 319 318 313 311 308 306 304 303 302 301 300 299 298 298 298 297 297 295 294 294 291 289 286
301 303 305 306 308 311 313 314 313 313 317 317 318 319 316 317 317 316 313 311 309 308 309 306 303 302 303 298 295 298 299 298 297 296 295 295 294 291 289 289 288 286 281
301 301 304 308 310 314 315 314 313 315 316 316 316 316 315 315 312 310 308 306 304 302 301 301 301 300 298 294 294 294 297 296 295 294 293 292 290 288 286 285 284 283 284
301 301 302 307 311 312 311 311 313 314 316 316 315 314 312 308 306 305 303 300 300 299 298 297 298 298 297 292 292 291 293 292 292 291 290 287 285 285 283 281 279 279 279
304 304 303 308 311 311 310 310 308 310 311 309 309 308 307 305 303 300 298 296 296 295 294 295 295 294 293 291 290 290 290 287 285 285 285 284 283 284 283 280 278 278 279
301 305 307 309 310 308 309 307 305 305 306 306 304 305 304 302 299 295 294 291 292 291 292 289 288 289 289 290 290 288 284 282 281 281 281 282 282 281 281 278 278 277 278
305 307 308 308 308 307 307 304 303 302 301 300 299 299 299 297 294 292 292 290 290 289 288 285 285 286 286 286 287 287 284 282 280 279 279 278 280 280 281 282 279 278 277
304 306 305 302 304 305 304 301 298 298 298 297 295 295 295 294 293 291 291 290 289 286 284 282 280 281 282 283 283 282 281 281 279 278 277 277 279 280 281 279 279 278 277
302 303 301 298 299 300 302 297 296 297 296 295 294 293 293 292 292 290 289 287 286 285 283 281 279 278 278 279 281 280 279 279 278 278 278 278 279 279 278 278 277 276 275
299 299 299 297 296 297 297 297 297 296 295 293 290 289 286 284 285 285 286 284 284 284 282 280 278 276 276 276 276 277 277 278 277 277 277 277 277 276 276 276 275 275 273
298 298 297 295 294 295 295 295 295 294 289 286 285 283 281 281 281 281 282 281 281 283 281 279 277 275 274 276 277 277 277 277 277 275 275 273 273 272 273 273 272 272 271
297 294 294 293 292 292 290 290 291 289 285 283 282 280 280 279 279 278 279 282 282 282 282 281 279 278 278 278 278 278 278 278 278 275 271 267 266 269 271 270 270 270 269

GFSMW_sfc_thetae_048.txt.gz
Theta_e
310 313 313 314 314 314 315 316 316 318 318 317 315 315 315 312 311 313 317 320 320 320 319 318 317 316 313 312 310 306 305 302 301 299 299 299 299 299 299 302 304 307 308
309 311 311 312 312 313 314 314 315 316 317 318 318 315 316 312 311 312 315 318 319 320 320 316 316 314 312 310 308 307 303 303 301 299 297 296 297 299 299 298 301 303 306
306 309 310 309 311 311 313 313 315 315 317 318 316 311 312 311 310 310 312 314 317 318 318 317 316 315 313 310 308 306 304 301 300 300 300 296 296 299 300 299 299 299 300
309 309 309 309 309 310 312 313 314 315 315 316 314 313 313 313 313 310 310 312 315 315 317 318 316 315 313 311 310 308 304 302 300 300 302 303 303 297 297 298 299 299 299
308 309 308 309 309 309 309 309 312 314 315 313 313 311 310 312 310 307 308 309 311 314 316 317 316 314 314 313 311 308 305 304 303 304 304 304 303 302 300 297 297 298 299
308 310 311 310 307 307 307 308 309 310 312 311 310 310 310 309 308 307 308 309 310 311 314 316 316 315 314 313 312 310 308 309 308 307 307 305 303 301 299 298 298 298 299
308 309 308 308 307 305 306 307 309 309 311 310 310 309 310 309 309 309 309 309 309 310 311 313 313 313 314 314 312 311 311 310 309 308 307 308 307 306 304 301 298 298 298
308 310 309 309 308 307 307 307 308 309 310 310 310 310 309 309 309 308 309 309 310 310 311 313 314 314 314 313 312 311 313 311 310 309 308 308 308 306 305 303 300 295 294
307 309 311 310 309 308 307 307 308 308 309 310 310 310 310 309 309 309 308 310 311 313 313 314 313 313 314 314 313 313 312 312 311 310 309 307 307 307 305 301 300 299 293
306 309 310 311 311 310 309 308 309 308 309 310 310 310 310 310 310 309 310 312 313 313 314 314 315 316 317 316 316 316 316 314 312 309 307 306 307 306 304 302 299 297 295
304 308 310 312 313 312 310 308 308 309 308 309 310 310 311 311 311 312 314 315 315 315 314 315 316 316 316 316 315 314 309 309 310 308 307 305 305 304 301 299 299 296 295
305 307 310 311 311 313 312 310 309 308 309 309 309 311 312 314 313 313 315 315 314 316 316 316 316 317 316 312 310 308 308 308 306 305 305 303 303 301 300 299 297 297 297
301 305 306 310 311 312 313 312 311 310 310 310 310 311 312 313 314 314 315 315 315 317 317 317 317 315 310 308 308 307 306 305 305 303 303 301 300 298 298 297 296 296 295
299 301 304 307 310 312 313 314 313 313 312 311 312 311 312 313 314 315 315 316 317 317 318 318 318 317 310 307 306 306 304 303 302 302 302 301 299 297 296 296 294 293 291
298 301 301 304 307 309 311 313 314 315 315 313 312 313 314 315 315 316 316 318 318 318 319 318 315 310 309 306 305 304 303 301 300 300 299 299 298 296 295 294 292 290 289
300 300 303 303 304 307 309 312 313 314 315 315 314 315 315 316 316 316 317 318 318 318 318 314 309 307 306 298 298 301 301 300 298 296 296 295 293 291 290 290 288 288 285
300 300 301 305 305 306 308 309 311 310 314 315 315 315 316 315 316 318 318 317 315 311 309 306 305 304 303 295 296 297 299 297 296 295 293 292 290 288 286 285 284 284 284
301 300 300 301 305 307 309 309 311 311 311 312 312 313 314 315 315 312 310 305 305 306 302 301 301 299 297 294 293 292 295 293 293 293 291 288 285 285 284 282 281 280 280
302 303 304 302 304 309 309 311 312 311 311 312 313 314 313 308 307 305 303 301 301 300 299 298 297 296 293 291 290 291 289 286 285 285 286 285 283 284 284 281 279 279 280
300 300 300 304 307 308 310 309 311 314 311 310 309 308 307 305 303 299 297 296 295 293 292 290 291 291 290 290 290 288 286 283 281 282 282 283 282 282 282 280 279 278 278
299 304 306 306 306 307 309 306 308 308 305 304 304 303 302 299 296 294 294 293 290 288 286 285 285 285 287 287 288 288 285 283 281 280 279 280 281 282 282 282 280 278 277
301 302 304 302 303 306 306 302 299 299 300 299 298 296 296 295 294 293 292 290 287 285 283 282 281 281 282 283 285 284 284 283 281 279 278 279 281 281 281 279 279 278 277
300 301 299 298 299 301 301 296 295 297 298 297 294 293 292 292 292 290 289 287 286 284 283 281 279 278 280 280 281 281 281 280 278 279 279 280 280 280 278 278 277 276 275
297 298 298 296 296 298 297 297 298 296 295 291 289 288 287 286 286 286 287 286 285 283 283 281 279 277 277 277 278 278 278 278 278 277 277 277 277 276 276 276 275 274 273
296 296 294 294 293 295 295 296 295 292 288 286 285 284 283 283 281 281 282 283 284 285 283 281 279 277 276 276 278 278 277 277 277 276 275 274 273 273 273 273 273 272 271
293 291 290 289 289 289 289 289 290 288 286 283 283 282 282 281 281 281 280 283 283 283 282 281 279 279 279 279 279 279 279 279 278 275 272 270 270 270 271 270 270 270 269

GFSMW_sfc_thetae_051.txt.gz
Theta_e
315 315 316 318 317 319 318 319 319 319 319 318 318 317 316 318 320 324 325 324 323 323 323 321 320 319 317 320 319 317 315 312 311 308 308 308 309 310 311 313 314 315 318
313 313 313 316 316 317 318 317 318 318 319 318 319 319 318 316 319 320 323 325 324 323 324 324 322 321 319 320 320 317 315 314 312 310 310 306 307 307 309 309 311 313 314
312 312 312 313 315 315 317 317 317 318 319 320 317 315 314 314 314 316 318 321 324 323 324 326 325 323 324 320 321 319 317 314 312 312 312 306 307 309 310 309 307 307 312
314 313 313 313 315 316 318 318 319 318 318 319 316 314 315 314 314 315 315 315 320 323 325 326 325 324 324 323 323 320 320 319 314 311 310 313 313 308 305 307 309 309 308
314 313 314 314 314 316 316 317 319 319 319 318 318 315 317 317 317 315 313 314 318 320 322 323 325 325 325 325 324 321 319 318 319 314 313 310 308 307 304 307 304 304 308
313 315 316 316 314 314 313 315 317 318 319 319 318 317 317 317 316 314 313 315 316 318 320 320 323 325 325 325 324 323 321 319 317 316 316 312 307 303 302 301 306 303 309
313 314 313 313 313 310 309 312 314 315 318 318 317 318 318 317 317 317 316 316 316 316 318 320 321 322 324 325 325 323 322 321 319 318 316 315 313 310 307 306 305 305 304
313 314 314 314 312 311 310 311 313 315 316 317 316 317 318 317 317 318 317 318 317 318 319 320 321 322 322 323 324 323 323 322 321 319 317 312 311 311 311 308 304 298 303
311 314 315 315 314 313 312 313 314 315 316 317 318 318 317 317 316 317 317 318 318 318 319 320 320 321 322 323 323 322 322 321 320 318 316 312 312 313 313 310 308 307 298
310 313 315 315 316 315 315 314 315 315 316 316 317 317 317 317 318 317 316 316 318 318 319 320 321 321 322 322 322 322 322 320 317 317 313 312 313 314 310 307 307 306 305
309 313 315 316 316 316 315 314 314 314 315 316 317 317 317 317 317 316 316 316 316 316 317 319 320 320 321 322 322 322 321 315 316 316 313 312 312 309 308 307 303 301 301
309 312 315 316 316 315 315 314 314 314 315 316 316 316 317 316 316 315 317 318 317 315 316 317 319 320 320 322 320 319 315 314 313 312 310 310 308 307 305 303 300 299 300
306 309 312 314 315 316 316 315 314 314 316 315 315 316 316 316 314 315 317 318 318 318 319 318 318 319 318 320 319 318 313 311 313 313 310 307 305 304 301 300 300 298 298
305 305 309 313 315 316 317 316 315 316 315 314 314 314 315 315 316 317 317 318 318 318 319 320 320 320 319 319 316 315 316 314 312 311 307 305 303 302 299 298 297 296 293
305 304 306 310 313 315 317 318 318 317 316 314 314 314 315 316 317 318 319 319 319 319 320 320 321 321 320 316 314 312 310 309 306 305 303 303 301 297 298 297 295 294 292
306 306 305 307 309 312 315 317 318 318 317 316 314 315 316 316 316 317 318 319 319 319 320 320 320 319 317 304 301 306 309 307 302 299 297 297 295 293 291 291 291 293 290
306 306 306 306 308 310 313 315 317 319 318 317 317 317 317 317 318 318 317 318 319 320 320 320 318 315 313 298 298 296 303 302 300 296 294 293 291 290 289 286 286 285 284
306 307 307 308 309 311 312 314 316 317 317 317 318 318 318 317 318 318 318 319 319 317 315 311 308 305 302 295 294 294 298 296 296 295 293 290 288 287 285 283 282 281 282
306 307 309 309 309 309 312 312 313 314 315 316 317 318 319 318 318 317 310 306 304 301 300 300 300 298 295 292 291 292 291 288 288 288 288 287 285 286 286 283 281 281 282
308 306 306 307 307 309 313 313 313 313 313 314 316 317 317 312 309 304 301 298 297 294 292 291 292 291 291 290 290 290 287 285 283 284 284 284 283 283 283 282 282 280 281
305 305 306 306 309 311 313 313 315 315 312 311 310 310 309 305 300 296 296 293 290 288 286 285 286 287 288 289 289 289 287 284 282 281 280 281 282 283 283 283 282 281 281
304 307 308 308 308 311 312 311 307 305 304 302 300 299 298 298 296 293 291 290 288 285 284 283 282 282 284 286 286 286 285 284 282 279 280 281 282 283 281 281 280 278 279
302 303 304 304 305 307 305 300 299 301 299 297 296 296 296 293 293 290 288 287 287 285 284 282 280 279 280 281 283 283 282 281 280 280 281 282 282 280 279 279 278 277 278
300 301 301 299 298 300 302 301 300 299 296 292 290 290 288 288 288 289 288 286 285 284 283 282 280 279 279 278 279 279 280 280 280 280 280 279 278 278 278 277 277 276 276
296 296 295 293 293 294 294 296 296 294 290 288 287 287 286 284 283 283 285 285 286 288 286 284 282 280 278 278 279 279 278 279 278 279 279 278 277 276 276 276 275 275 274
290 289 288 289 288 289 289 289 291 291 290 288 287 286 286 285 284 282 281 283 283 282 282 281 280 280 280 281 281 280 279 279 278 277 275 274 275 275 275 274 274 273 272

GFSMW_sfc_thetae_054.txt.gz
Theta_e
321 321 322 319 321 322 321 320 319 320 321 319 320 320 318 318 320 321 325 327 323 324 324 322 323 324 324 324 324 321 318 316 318 313 313 314 317 317 317 318 318 319 321
319 320 321 321 319 322 321 321 320 321 320 320 320 320 319 318 319 320 323 326 327 324 324 324 323 323 324 325 325 323 319 319 318 314 316 312 314 315 316 317 316 317 317
319 319 320 321 322 322 320 320 320 320 320 320 321 320 319 318 317 318 322 325 328 325 325 325 325 324 324 323 325 325 323 320 320 321 318 314 311 316 318 315 316 317 316
321 320 320 321 321 323 324 322 321 320 320 320 319 317 314 314 317 318 322 324 327 326 325 325 326 327 325 324 325 325 325 324 320 320 319 322 321 315 313 317 316 313 313
321 320 321 322 323 323 323 322 321 321 320 320 319 317 316 316 317 317 319 323 326 326 325 326 328 328 329 328 328 327 327 326 326 322 321 320 320 320 316 314 316 313 310
321 322 323 323 323 323 323 321 320 320 320 319 319 317 317 317 318 316 315 316 319 324 327 326 329 330 329 329 330 330 329 327 326 327 324 322 319 317 316 314 316 313 309
320 321 321 322 322 322 322 322 320 318 321 320 320 321 320 321 321 318 317 317 316 317 319 324 325 325 326 328 329 329 329 328 326 326 325 324 323 322 320 316 310 312 311
320 320 322 323 322 322 322 320 321 321 321 321 321 324 323 324 322 322 321 320 320 321 321 323 324 324 324 325 326 325 326 327 327 327 326 325 325 323 318 310 307 302 305
318 319 321 323 324 323 322 319 320 321 322 323 324 324 325 325 324 324 325 323 324 323 325 324 323 323 323 324 325 325 324 326 328 327 327 326 325 324 319 316 311 307 304
314 317 320 322 324 324 323 321 321 321 322 323 324 324 325 326 326 326 325 325 326 326 325 324 324 324 325 325 324 325 325 325 327 326 326 325 324 319 317 313 313 311 307
315 317 320 322 324 324 324 322 321 321 321 323 324 324 325 325 326 326 326 325 326 325 324 325 324 324 325 325 325 325 325 325 325 326 323 322 321 318 314 313 310 308 307
314 316 320 322 322 323 323 323 323 322 322 322 323 324 324 324 324 325 325 327 326 325 325 325 324 323 324 325 324 323 323 323 323 323 321 317 313 312 311 310 308 307 306
313 313 317 320 322 322 322 323 323 323 323 323 322 323 323 324 324 324 324 323 323 323 323 322 322 320 322 321 322 320 323 323 322 323 318 314 315 312 311 307 304 303 301
311 313 313 318 321 322 323 323 323 324 324 323 322 322 323 324 324 324 323 324 323 321 322 322 322 322 321 321 321 321 322 322 322 322 319 319 316 312 306 303 301 300 297
310 312 313 314 317 321 323 323 324 324 324 322 321 322 324 323 322 322 322 322 322 322 321 322 322 322 322 322 322 322 322 321 319 317 317 318 311 302 303 301 299 297 295
309 311 313 313 313 316 320 322 323 323 323 321 321 322 322 322 322 321 322 321 322 321 322 321 321 322 322 307 303 312 320 318 315 308 306 305 300 297 294 295 295 296 295
309 310 311 313 314 315 317 319 322 325 323 322 321 321 321 321 321 321 321 320 321 322 321 321 321 321 323 299 300 300 318 312 309 303 299 297 295 294 291 289 287 286 286
310 312 313 313 314 316 316 318 320 322 323 321 321 321 321 320 321 320 320 320 321 322 322 321 321 320 320 299 299 296 305 301 300 298 296 292 291 290 288 287 285 285 284
311 312 314 315 316 314 315 314 317 320 322 321 321 322 322 320 321 320 321 322 321 320 314 312 310 308 301 295 293 296 295 292 290 291 291 289 287 287 287 284 282 282 282
311 310 311 313 313 313 314 314 314 316 318 320 321 323 322 322 321 322 321 311 306 296 294 292 293 292 292 291 292 292 289 286 284 284 285 286 285 285 285 284 283 281 281
309 310 311 312 314 314 314 313 314 314 317 318 319 321 322 321 317 309 302 296 292 289 287 286 287 288 289 289 289 289 287 285 283 282 282 283 284 284 284 284 284 283 283
307 308 309 310 313 314 316 315 315 315 316 314 310 307 305 302 300 296 294 293 290 287 285 284 283 284 285 286 287 286 285 285 282 281 282 283 284 283 282 281 281 280 282
304 304 304 304 303 306 312 312 306 306 304 301 298 296 295 294 294 295 292 289 288 286 284 282 281 280 281 282 284 283 283 282 281 282 283 283 282 281 280 280 279 279 281
298 296 295 294 293 294 296 300 300 299 296 293 292 291 291 291 291 290 289 287 286 284 283 282 280 279 279 279 280 281 281 281 282 282 282 281 280 281 279 278 279 279 279
288 290 289 288 289 291 291 293 293 293 290 289 288 287 286 284 283 283 285 284 286 286 283 282 281 279 278 278 280 280 280 280 280 280 280 280 279 279 279 278 278 278 277
285 285 285 284 284 284 287 289 292 291 288 286 286 285 284 283 282 281 280 283 283 282 282 282 281 280 281 281 281 281 280 280 280 280 279 279 279 278 278 278 277 277 275

GFSMW_sfc_thetae_057.txt.gz
Theta_e
323 323 324 324 326 325 324 323 322 322 322 320 319 319 318 320 321 323 323 324 323 323 324 322 326 325 323 323 325 321 320 318 320 315 315 316 318 319 318 319 319 320 322
321 322 324 323 325 323 324 322 321 321 322 322 322 321 319 319 320 321 325 326 327 323 323 324 322 324 324 327 326 325 319 317 318 313 313 310 313 316 318 319 319 323 320
320 322 322 323 323 324 323 321 320 321 322 322 324 322 322 319 317 317 319 323 327 323 323 325 325 325 327 327 328 326 324 318 320 321 317 312 310 315 319 320 320 322 320
322 322 322 324 323 324 325 323 321 321 323 322 320 319 317 315 316 316 317 321 326 325 322 325 328 329 326 328 329 327 327 326 320 321 320 325 322 315 310 318 319 320 319
321 322 323 324 325 326 325 325 321 321 321 322 320 319 319 319 317 316 316 322 325 323 324 327 329 329 328 329 329 329 329 327 325 323 322 322 322 323 317 314 316 318 319
320 323 325 325 325 326 326 324 323 320 320 322 321 320 318 317 316 315 315 321 323 326 325 326 328 329 330 330 329 330 330 329 328 327 325 322 319 318 318 316 317 318 317
318 322 323 323 325 325 325 324 321 321 320 320 319 321 322 318 319 319 317 315 319 321 325 327 326 328 329 330 326 328 330 330 328 328 327 326 323 323 322 320 317 317 319
319 321 323 324 324 325 325 324 322 321 321 320 320 322 323 321 322 321 321 321 318 321 324 328 329 329 330 330 329 329 328 326 327 329 327 327 324 325 324 321 319 314 313
318 320 322 325 326 326 325 325 323 323 323 321 321 320 321 321 322 324 325 323 323 323 325 327 328 329 329 329 329 328 328 328 329 329 329 326 325 326 326 325 323 318 309
315 318 321 324 326 327 327 326 325 323 323 324 323 322 322 322 325 325 326 326 325 325 325 325 326 326 327 327 327 326 327 326 326 326 326 326 327 326 327 324 322 318 314
314 316 319 322 325 327 327 326 325 323 323 325 326 325 326 325 325 326 328 328 328 326 325 325 325 324 325 326 325 325 325 324 325 326 325 325 326 325 325 321 318 315 312
314 315 318 322 324 325 327 326 325 324 323 325 327 328 329 329 327 327 329 330 329 329 327 325 325 325 324 325 325 324 323 323 323 323 324 323 323 324 322 321 316 314 312
313 315 316 320 323 324 325 326 326 325 325 324 326 328 329 328 328 329 329 330 329 329 327 327 325 324 325 324 325 324 324 324 324 323 323 323 324 320 320 315 312 312 309
312 313 314 316 321 324 325 326 326 328 326 325 325 325 327 328 328 329 329 329 329 328 328 327 326 326 325 325 324 324 324 324 323 324 321 320 323 319 317 315 312 309 304
311 312 313 315 316 320 324 325 326 328 328 326 325 325 327 328 328 328 328 328 328 327 327 326 326 326 325 324 324 323 322 320 319 321 324 323 320 309 313 314 311 305 300
309 311 313 314 314 316 318 323 325 327 328 327 327 327 327 326 327 327 327 327 327 327 327 325 325 325 324 309 302 313 323 320 317 318 321 321 307 304 298 298 298 302 299
309 311 313 314 315 316 318 318 322 326 326 327 327 327 328 326 327 327 326 325 326 326 325 325 325 324 325 302 300 299 321 323 322 321 320 308 302 300 297 291 288 288 288
310 312 313 314 315 316 317 319 318 321 324 325 325 326 326 326 326 326 325 325 325 325 325 325 325 324 323 300 299 298 318 319 314 312 307 300 294 294 293 290 287 286 285
311 312 313 313 314 315 317 317 316 317 319 322 325 325 326 325 325 324 324 325 325 325 324 324 323 319 315 296 297 298 298 294 292 293 294 292 290 290 290 286 284 283 283
311 310 311 312 313 315 316 317 315 315 316 320 324 326 325 324 323 324 324 325 324 318 303 295 295 292 294 295 295 296 291 287 286 286 287 287 286 286 286 284 283 281 280
309 309 308 308 307 307 308 311 316 316 316 318 320 324 325 324 325 325 324 311 301 294 290 288 288 289 289 290 291 291 288 285 284 284 283 284 285 285 286 285 284 282 282
306 306 304 302 300 298 298 302 310 316 319 320 319 314 314 311 308 303 299 296 292 288 286 285 285 285 286 286 287 286 286 285 283 282 283 283 284 284 283 282 283 282 283
302 301 300 297 293 290 292 293 298 304 306 307 302 299 297 297 296 294 292 290 289 287 285 284 281 281 283 283 284 284 284 283 282 283 283 283 282 281 280 280 280 281 281
297 296 294 292 287 286 287 289 294 295 294 292 292 291 290 289 289 290 290 289 287 286 284 282 280 280 280 281 281 282 283 282 282 281 281 280 280 279 278 279 280 280 279
291 291 288 288 284 285 285 286 290 291 288 287 286 285 284 283 282 283 284 284 285 285 282 281 280 279 278 280 281 281 280 280 280 280 281 280 280 280 280 279 278 278 278
284 284 283 284 282 282 283 284 286 287 286 284 284 283 282 282 281 280 280 283 283 283 282 282 281 281 282 282 282 282 282 282 282 282 281 281 281 279 279 279 278 278 276

GFSMW_sfc_thetae_060.txt.gz
Theta_e
322 323 323 324 325 324 324 322 322 322 321 320 319 319 318 320 320 322 323 323 321 321 321 320 321 321 318 317 319 319 317 316 316 313 312 312 313 314 313 315 315 317 319
320 321 322 322 324 323 322 323 322 322 321 320 320 320 319 320 320 321 321 320 320 320 321 320 320 320 320 320 319 317 315 316 316 310 308 304 307 311 314 313 313 313 316
318 320 321 321 323 323 322 321 321 321 321 321 321 320 319 319 317 317 319 320 320 320 320 321 320 320 321 320 319 319 317 312 313 313 309 304 302 307 310 311 312 312 314
320 321 321 322 321 323 323 321 321 321 321 322 320 317 316 314 315 317 319 320 323 320 320 321 321 320 320 322 322 323 320 319 312 312 315 314 315 311 307 310 312 314 313
318 320 321 323 323 323 323 321 320 320 321 322 321 319 317 316 315 316 316 318 322 324 321 321 322 320 320 320 323 322 321 320 318 315 314 313 314 315 311 307 309 311 312
317 321 323 324 324 323 323 321 320 320 321 321 321 320 317 316 314 315 313 315 317 323 323 321 321 323 323 321 322 323 322 321 320 319 318 316 313 312 311 309 309 309 311
317 320 321 322 323 323 323 322 319 319 321 320 320 320 320 318 316 315 314 313 314 318 320 321 321 323 323 324 324 322 322 323 321 320 319 319 317 317 316 312 310 309 312
317 318 321 323 323 323 324 322 320 318 319 320 320 320 320 319 318 316 316 315 315 318 321 321 321 322 323 324 324 323 323 322 321 321 320 320 319 319 318 315 311 307 309
315 318 321 323 323 324 323 323 321 321 319 318 321 320 321 319 318 318 318 317 317 318 321 323 322 322 322 323 324 323 321 321 321 321 321 320 320 321 319 318 315 311 306
315 317 319 324 324 325 325 325 322 321 322 320 320 320 320 321 320 320 319 319 318 318 319 321 323 322 322 323 324 323 322 321 321 321 320 320 320 321 319 318 317 315 313
314 315 319 321 325 326 326 325 324 322 321 321 321 319 319 320 321 320 321 320 320 319 319 319 320 321 322 323 322 321 321 320 320 319 319 320 321 319 319 318 318 317 315
314 315 317 321 322 325 325 325 324 323 322 323 322 320 320 320 320 320 321 322 321 322 320 319 320 320 320 321 320 320 320 319 318 318 318 318 319 318 319 319 318 316 314
312 313 314 319 321 323 324 325 325 324 324 323 323 322 321 321 321 320 322 322 322 323 322 321 319 319 320 319 320 320 319 318 318 318 317 317 317 317 317 318 318 317 315
310 312 313 314 315 322 324 325 326 326 325 324 323 323 323 322 322 323 323 323 324 322 323 323 321 320 320 320 320 319 319 318 318 319 318 319 318 317 317 317 317 315 312
308 310 311 313 314 315 316 322 325 327 326 324 323 322 324 325 325 324 324 324 324 325 324 323 322 322 321 320 319 319 318 318 318 318 319 319 316 309 312 316 316 313 310
308 310 311 313 313 314 314 316 318 325 328 325 324 324 323 324 324 324 324 325 324 324 325 324 323 322 322 310 303 312 319 318 317 316 317 317 306 306 301 302 304 310 310
308 309 310 311 312 313 315 314 316 317 322 325 325 325 325 323 323 324 324 323 323 324 323 322 322 321 322 304 302 300 317 318 317 316 315 314 309 304 301 290 289 288 288
308 308 309 309 312 314 314 315 316 318 316 319 324 326 325 325 324 323 323 322 323 322 322 321 321 321 320 303 301 299 312 316 315 313 313 316 302 299 294 289 287 286 286
308 307 308 308 309 308 307 307 310 313 316 317 316 323 325 324 324 323 322 323 322 321 321 321 320 319 318 294 296 297 305 296 290 291 292 292 291 291 292 289 285 283 283
307 305 305 306 304 301 301 301 304 307 311 313 318 319 321 324 323 323 322 322 322 320 313 296 295 292 295 292 293 298 293 287 285 285 286 286 286 287 288 285 283 280 280
305 303 302 301 299 295 295 296 297 299 300 305 312 310 311 320 322 322 321 320 306 294 289 287 287 287 289 290 292 292 288 286 284 284 284 285 286 286 286 285 282 281 282
301 299 297 297 295 292 291 291 291 294 296 300 305 302 301 303 304 303 298 297 293 289 286 285 284 285 286 287 287 287 286 286 283 282 283 284 285 285 284 283 283 283 282
295 294 293 292 291 290 289 287 289 292 293 293 293 292 292 293 294 294 292 290 289 287 285 283 282 281 283 284 285 285 285 284 282 282 283 282 282 282 282 282 282 281 281
288 288 287 286 285 286 286 286 288 290 288 286 286 285 284 284 286 289 290 288 286 284 283 282 280 280 280 281 282 282 281 281 280 280 279 279 279 279 279 279 278 278 278
285 284 283 283 282 283 283 285 286 287 285 284 284 283 282 282 281 282 282 282 283 284 282 280 281 279 278 280 282 280 280 280 280 280 280 279 279 278 278 278 278 278 277
282 281 280 280 280 282 282 284 285 285 284 282 282 281 281 281 281 280 280 283 283 283 283 283 282 282 283 283 283 283 283 283 283 281 279 278 278 277 277 276 276 275 274

GFSMW_sfc_thetae_063.txt.gz
Theta_e
316 316 318 322 320 319 321 321 321 322 321 320 320 320 319 320 320 321 321 323 322 322 319 322 321 320 320 319 317 316 314 312 313 310 309 309 311 312 312 314 317 317 318
315 315 319 320 319 318 319 321 320 320 320 320 320 320 320 320 320 320 321 322 320 320 318 319 319 318 319 318 316 314 313 313 313 309 307 302 305 307 310 310 311 315 318
314 314 316 317 318 317 318 320 320 320 320 320 320 320 320 319 318 319 319 320 319 319 319 319 318 317 318 317 314 313 313 311 312 310 306 301 300 302 305 308 308 309 310
315 316 315 315 317 317 319 321 320 319 320 320 318 317 316 314 316 317 318 317 318 318 318 319 318 317 318 317 315 316 316 312 310 308 312 309 310 305 303 307 308 309 310
315 315 316 316 318 319 318 318 319 320 319 319 319 317 315 316 317 317 316 317 317 317 317 318 318 316 316 317 317 317 317 317 313 309 307 307 310 311 308 304 306 309 310
315 316 318 317 317 318 317 317 318 319 320 319 318 316 316 313 313 312 314 315 318 318 317 318 319 317 316 316 320 319 318 317 317 315 313 312 309 309 308 306 306 306 308
315 315 316 316 316 317 316 316 317 318 319 319 318 316 316 315 312 313 315 315 314 318 319 318 316 317 318 317 318 320 320 318 318 317 317 317 316 315 313 310 309 307 309
316 316 317 317 317 317 317 316 316 318 319 319 318 318 317 316 314 314 315 315 315 316 320 320 318 318 319 320 320 320 320 320 320 318 317 318 318 317 315 312 309 304 306
313 316 317 318 318 318 317 317 316 317 319 319 318 318 319 318 315 314 314 315 315 316 317 320 319 318 319 320 321 320 319 319 319 317 318 317 317 318 318 316 315 311 304
308 316 318 318 319 319 319 318 317 316 317 319 319 319 319 320 319 316 314 314 314 315 315 319 319 319 319 320 321 321 321 319 318 319 318 318 318 318 319 318 317 314 312
306 310 317 319 320 320 320 318 318 317 316 317 318 319 319 319 319 317 316 315 315 314 314 317 319 320 319 319 320 321 321 319 319 319 318 318 318 317 317 317 317 315 314
308 310 310 313 317 319 320 319 318 318 318 317 317 317 319 319 319 319 318 318 316 316 315 315 317 319 319 320 318 318 320 319 318 318 317 317 318 317 317 317 316 316 316
307 308 310 310 312 315 319 320 320 319 319 319 317 317 317 317 318 319 320 319 319 317 317 316 315 315 316 318 319 319 319 319 319 318 317 317 316 316 317 317 316 316 316
307 308 308 309 310 312 313 318 320 321 320 320 318 317 317 316 317 318 319 319 319 318 318 318 317 317 317 317 317 318 318 319 319 318 318 317 317 316 316 315 314 315 315
306 307 307 307 309 310 311 312 313 316 322 320 319 319 318 319 318 317 318 320 319 319 319 319 318 318 317 317 317 317 317 316 316 317 317 317 314 308 311 315 315 314 314
305 306 306 307 308 309 308 309 310 311 315 321 320 320 321 320 319 319 319 319 319 319 320 318 319 319 319 308 302 311 316 316 315 315 315 316 306 306 301 301 303 311 313
303 304 305 306 305 302 302 301 304 308 311 313 317 321 321 320 321 321 320 320 320 321 320 320 320 319 320 304 301 300 315 316 315 315 315 315 315 306 311 292 292 291 291
302 302 303 303 300 298 298 299 301 303 306 305 306 310 314 317 320 321 321 321 321 321 320 320 320 321 321 305 302 299 311 316 317 317 316 316 313 307 299 291 287 285 285
300 300 300 299 296 293 294 296 297 298 299 298 300 303 309 308 308 317 319 321 320 320 320 321 321 320 320 300 300 299 311 312 293 291 293 296 295 292 293 288 284 282 282
298 297 297 295 292 291 292 292 292 293 293 295 296 300 304 302 302 304 309 320 320 319 319 303 295 292 298 291 295 299 301 289 286 286 287 288 289 288 288 285 283 280 280
293 294 293 290 289 289 290 289 290 289 291 293 296 296 296 295 297 298 298 313 310 295 291 289 289 289 290 291 294 295 294 289 285 284 284 285 286 287 286 285 283 281 282
288 288 288 287 286 286 286 286 286 288 291 291 290 289 288 289 290 293 294 295 294 292 289 287 285 285 286 287 288 288 288 287 284 283 284 284 285 285 284 283 284 283 282
285 286 285 284 284 284 284 284 285 287 288 287 285 284 285 284 285 285 288 290 290 288 286 285 283 282 283 284 285 285 285 284 283 283 284 284 283 283 282 283 282 281 281
283 283 282 281 281 282 283 284 285 286 285 283 283 283 282 282 282 283 283 283 285 285 284 283 281 281 281 280 281 281 281 280 280 279 280 279 279 278 278 279 279 278 278
281 280 280 280 280 282 282 283 284 285 283 282 281 281 281 281 280 281 281 281 282 283 281 282 282 280 278 280 282 281 280 279 279 280 279 278 277 277 276 276 275 276 276
279 279 279 279 280 281 281 282 283 283 282 280 280 280 279 280 279 279 279 282 283 283 283 283 283 283 283 284 284 284 284 283 282 279 276 275 275 275 274 273 273 273 273

GFSMW_sfc_thetae_066.txt.gz
Theta_e
313 317 321 320 318 318 319 320 322 322 323 322 322 322 321 322 321 322 323 324 323 324 325 322 322 321 318 318 316 314 314 313 314 311 309 309 312 314 314 315 314 315 316
311 316 318 318 318 318 317 318 321 322 322 322 322 321 322 321 322 321 322 323 322 322 323 324 321 322 320 316 315 314 311 313 314 310 308 304 306 308 311 312 314 313 315
311 314 317 316 316 317 317 317 319 320 320 320 320 318 320 319 318 319 319 322 321 320 320 322 319 320 319 317 314 314 313 311 311 312 309 302 302 303 305 308 311 313 314
313 314 316 316 315 316 317 317 318 319 319 320 319 318 316 315 317 318 320 321 320 319 319 320 318 318 319 318 316 314 312 312 312 309 311 309 307 302 300 305 306 309 312
313 313 316 316 317 317 317 317 318 319 319 319 319 318 316 317 318 318 318 319 319 318 317 318 318 317 318 318 317 315 312 312 312 309 308 307 308 308 305 302 304 306 308
313 313 316 317 316 317 317 316 316 317 318 319 319 317 316 316 315 316 315 316 316 316 317 317 317 317 317 318 317 316 313 313 313 313 310 308 306 307 307 304 304 305 306
313 313 312 314 315 316 316 316 315 316 318 318 318 317 315 314 314 314 315 315 315 315 315 317 317 317 317 317 318 316 314 313 315 314 312 313 311 312 310 309 306 305 306
313 313 313 314 315 316 315 315 315 316 317 318 317 317 316 314 313 314 315 314 316 316 317 317 317 318 317 316 317 318 318 316 316 315 316 316 316 315 314 312 309 303 304
312 314 315 314 315 315 315 315 315 316 317 317 318 316 315 314 313 312 314 314 313 317 318 318 316 317 317 318 317 315 316 318 318 317 317 317 317 317 317 315 311 309 302
313 314 315 315 316 316 316 316 316 316 317 317 318 318 317 316 315 312 312 314 315 313 315 319 318 317 317 318 317 317 317 317 318 318 318 318 318 316 316 315 313 312 311
308 312 314 316 316 317 317 316 315 315 316 317 317 318 318 319 318 316 313 313 314 312 312 315 318 318 317 316 316 317 318 317 317 318 317 317 318 316 316 316 316 315 314
307 309 312 315 316 317 316 315 315 315 316 317 317 317 318 319 319 318 317 315 313 313 313 312 316 317 318 317 315 314 316 317 317 317 317 316 317 315 317 315 314 314 314
306 307 309 309 310 312 318 318 317 316 316 316 316 316 317 317 317 318 318 317 316 314 313 313 312 314 317 317 317 316 316 316 317 318 317 316 316 315 315 315 314 314 314
305 305 307 308 309 309 309 311 315 317 318 317 316 315 315 317 317 317 318 319 319 317 316 315 314 313 313 315 317 317 316 316 316 317 318 318 316 315 315 314 314 314 313
304 305 305 304 303 302 303 304 305 308 311 318 317 316 317 317 317 317 317 318 318 318 318 317 317 315 314 313 313 314 314 315 316 316 317 318 316 310 312 315 315 315 313
302 303 302 300 298 298 298 300 302 304 307 307 306 316 319 319 317 317 316 316 317 317 318 317 317 317 316 307 302 308 314 314 314 314 316 317 307 306 301 301 303 310 313
300 300 298 296 294 294 295 296 298 300 300 300 301 303 305 310 317 319 318 316 316 317 317 317 318 317 317 304 301 299 313 315 314 314 314 314 314 306 313 300 296 290 289
298 296 294 292 291 292 292 294 295 295 295 295 296 299 301 304 304 306 310 318 318 317 316 316 317 317 317 304 300 298 311 313 314 315 314 315 314 313 311 299 288 286 286
295 293 291 290 289 289 290 291 291 290 291 292 293 295 297 297 298 299 301 303 304 316 318 318 318 317 317 305 300 300 313 313 313 314 306 306 312 306 299 292 285 283 283
292 290 289 287 286 287 288 289 288 288 288 290 291 291 291 291 292 294 295 298 299 301 312 319 318 312 317 300 297 301 314 313 309 290 289 290 295 292 293 292 285 281 281
288 289 286 284 284 284 286 286 286 286 289 289 289 287 287 287 289 289 292 295 295 295 295 293 289 290 289 290 293 296 307 304 288 286 285 286 287 288 288 287 285 282 282
285 285 284 282 283 284 285 284 284 287 287 286 285 284 284 284 285 286 286 289 290 289 287 285 284 284 285 286 288 288 288 289 287 285 284 285 286 285 285 284 284 283 282
282 282 281 281 281 283 283 283 284 285 284 283 282 282 282 282 283 283 283 284 286 285 284 283 281 281 282 282 284 285 285 285 284 284 284 283 283 282 281 282 282 281 280
279 281 280 279 279 281 281 283 283 283 281 281 280 280 280 280 281 282 282 282 282 282 282 281 279 279 280 281 281 281 281 281 280 279 279 279 279 278 277 277 277 276 276
279 279 279 279 279 280 280 281 282 283 281 280 279 279 279 279 279 279 281 281 282 282 280 280 281 279 279 280 282 281 280 280 279 279 278 276 275 274 274 274 274 274 274
277 277 277 278 278 278 279 279 281 280 279 278 277 276 276 276 277 277 277 280 281 283 283 283 282 281 283 283 282 282 281 281 279 276 274 273 273 272 272 272 271 272 271

GFSMW_sfc_thetae_069.txt.gz
Theta_e
313 315 319 318 318 317 317 321 321 324 324 323 322 322 320 320 321 320 323 324 326 324 320 319 317 316 310 312 314 311 311 310 313 311 309 310 313 312 313 313 313 314 314
309 316 318 318 319 318 318 319 319 322 324 324 323 323 323 322 322 321 321 324 324 326 322 319 318 316 314 314 315 312 310 310 312 310 309 305 308 311 311 311 312 313 315
309 315 317 317 318 317 317 318 319 320 322 323 320 320 320 320 320 320 320 323 322 323 325 321 320 319 317 316 315 312 312 310 310 312 309 303 304 305 307 310 312 312 313
311 314 315 316 316 317 316 316 320 319 320 321 320 319 318 316 319 320 320 322 321 322 321 323 320 320 320 317 315 314 314 313 311 308 310 310 308 304 302 306 310 312 312
311 313 315 316 317 318 317 318 318 317 319 319 319 318 316 317 318 318 318 320 320 319 318 321 319 319 320 319 317 313 311 314 313 309 307 308 309 308 305 302 303 305 310
310 313 316 316 316 317 317 316 316 315 317 318 317 315 316 316 316 317 317 318 319 318 317 319 318 319 318 318 317 315 313 313 315 312 310 309 308 308 307 303 303 303 306
310 311 313 314 315 316 316 316 316 315 315 318 316 315 313 315 316 316 317 316 317 316 315 317 318 317 317 318 318 316 316 313 312 313 311 312 311 312 312 308 306 305 306
310 311 314 314 314 315 316 315 314 315 315 317 318 318 315 316 315 316 317 317 317 317 316 317 318 318 317 317 318 317 316 315 313 313 313 312 311 311 311 309 306 302 303
310 310 313 315 314 316 315 315 315 315 316 316 317 317 316 312 312 314 315 316 318 317 315 315 316 318 318 317 316 317 316 316 314 314 315 315 314 314 313 312 310 308 304
309 311 312 314 315 315 316 315 316 315 315 316 315 315 316 316 312 311 311 312 312 314 316 316 315 316 317 317 316 315 315 316 316 315 313 313 315 316 316 315 314 313 312
309 311 312 313 314 315 315 315 315 316 316 316 317 316 315 314 313 311 311 312 312 312 312 317 317 315 316 316 316 315 315 314 315 316 315 315 316 316 316 315 315 314 313
309 311 312 314 314 315 315 315 315 315 317 317 317 316 315 316 315 314 314 312 312 312 312 312 316 318 316 316 315 316 317 316 314 314 314 314 316 316 317 316 314 314 315
306 306 306 306 308 314 316 316 316 315 316 316 317 316 315 315 315 316 317 316 314 313 312 313 312 314 316 317 316 315 314 315 315 316 315 315 315 314 315 316 315 315 314
302 301 301 301 303 304 306 307 307 309 310 316 316 315 315 315 316 316 316 316 316 315 314 313 312 312 313 315 316 315 314 314 313 314 315 315 315 315 315 314 315 315 314
299 297 296 296 297 298 300 302 302 303 304 310 310 313 316 317 318 317 316 317 316 316 316 315 314 314 312 312 312 314 315 314 314 314 314 315 314 309 311 315 314 313 312
297 295 294 293 292 293 295 296 297 298 298 299 300 303 305 311 314 317 317 317 317 317 317 315 315 315 315 306 301 305 311 312 313 313 314 315 306 306 301 301 303 310 312
295 293 292 291 290 290 292 292 293 294 295 295 296 298 299 301 302 303 305 313 316 317 317 317 317 316 316 303 301 299 311 312 312 312 312 312 314 307 314 303 298 299 298
292 290 290 289 289 289 291 291 290 290 292 292 293 293 293 294 295 297 299 299 302 303 309 315 317 317 317 304 301 301 311 313 313 313 313 312 312 312 311 311 308 304 303
290 288 287 287 286 287 289 288 288 289 289 289 289 289 289 289 291 292 292 294 297 299 300 303 304 312 316 304 299 300 311 312 313 314 314 313 312 308 302 308 306 290 286
288 286 285 285 284 285 287 286 286 287 286 286 286 285 285 286 287 288 288 290 293 295 296 294 290 288 288 289 289 292 309 311 311 312 310 288 288 290 294 306 306 291 284
286 286 284 282 283 285 286 285 285 284 285 285 284 283 283 285 285 285 286 287 289 290 288 285 284 284 284 286 288 290 294 303 302 289 285 285 287 287 288 288 289 285 282
283 283 282 282 283 284 284 283 282 284 284 283 282 281 281 283 283 283 284 285 286 285 284 282 282 282 282 284 285 286 287 288 286 285 284 284 285 285 285 284 284 283 281
281 281 280 281 281 282 283 282 281 282 282 281 280 280 280 281 282 282 282 282 283 282 281 281 280 280 281 281 283 283 283 283 282 282 281 281 281 281 280 281 281 279 278
279 280 280 279 279 280 281 281 282 281 281 279 279 279 279 279 279 280 280 280 280 280 281 280 279 279 280 280 280 280 280 280 279 278 277 277 277 276 276 276 276 275 275
278 279 278 278 278 279 279 281 280 280 279 278 278 277 277 277 278 278 278 278 280 280 278 278 279 278 278 279 281 280 279 278 278 276 275 274 274 273 273 273 273 273 273
275 275 276 276 277 277 278 278 280 280 278 277 276 276 276 276 276 276 276 279 279 280 281 281 279 279 280 280 280 280 279 278 277 274 272 271 271 270 270 270 270 270 270

GFSMW_sfc_thetae_072.txt.gz
Theta_e
314 314 317 318 316 315 317 321 323 324 325 323 321 320 320 320 321 323 326 326 325 322 320 318 317 316 315 314 313 312 312 311 314 310 309 309 313 313 313 314 314 315 316
308 314 316 317 317 317 318 319 321 324 324 324 322 323 321 321 321 322 324 326 324 321 319 318 316 315 312 313 313 313 310 311 314 310 308 304 308 312 313 313 313 313 315
307 312 315 317 318 317 318 318 320 323 324 324 322 321 320 321 319 319 321 323 325 322 320 320 316 315 312 312 313 311 311 309 310 314 309 303 304 308 310 311 312 313 313
307 313 314 316 318 318 319 318 319 320 322 322 321 319 318 316 319 319 321 322 324 324 321 319 318 315 314 314 314 313 312 312 310 308 310 310 308 306 303 307 311 313 313
307 312 314 316 318 319 317 316 318 319 320 321 321 320 319 318 319 319 319 321 321 323 323 320 320 318 317 316 315 314 312 312 312 310 308 308 308 308 307 304 305 308 312
306 311 314 316 317 318 316 317 317 316 318 319 320 319 316 316 316 317 317 319 319 320 321 322 319 319 319 317 317 315 313 313 313 312 310 309 308 307 307 305 305 305 307
304 310 313 315 316 315 316 316 315 314 315 316 317 317 316 316 316 316 317 317 318 317 317 320 319 320 319 319 317 315 313 312 312 313 312 312 312 312 311 309 307 306 308
304 310 313 314 315 315 315 316 315 314 313 312 314 315 312 314 317 317 318 318 318 318 318 318 318 318 319 319 318 317 316 315 313 312 313 312 313 312 311 310 308 304 304
301 308 312 313 315 315 314 315 315 315 315 313 313 312 312 313 315 317 317 318 319 319 317 317 318 317 318 318 318 318 317 317 316 314 313 313 313 313 312 311 310 309 304
308 311 312 314 315 316 316 316 315 315 315 316 312 313 312 311 311 314 314 316 317 317 315 315 317 317 317 317 317 317 317 316 316 316 314 313 314 314 313 312 311 310 308
309 310 312 314 315 315 315 314 314 315 315 315 316 312 312 311 310 310 311 314 314 315 314 314 315 315 316 317 316 316 315 315 315 316 314 313 314 313 314 314 313 312 312
305 311 312 313 313 314 315 314 315 315 315 316 316 316 315 312 310 310 310 311 313 312 313 316 314 314 315 316 316 315 315 313 313 314 314 313 314 313 313 313 313 314 315
299 301 303 304 308 312 314 314 315 316 316 317 316 315 315 314 312 312 312 311 311 311 311 311 314 315 315 314 315 315 315 313 313 313 312 313 314 313 314 314 314 315 315
297 297 297 299 301 303 304 305 305 306 307 315 316 315 315 316 316 316 315 314 313 312 313 313 313 313 314 315 315 314 314 315 315 316 316 315 314 313 313 313 314 314 314
293 294 294 295 297 297 298 297 298 299 302 304 304 305 309 317 317 317 317 317 316 315 314 313 312 313 313 313 313 314 314 313 313 313 313 314 313 308 311 314 314 314 312
292 291 291 291 291 292 292 293 294 295 297 296 297 298 300 303 303 304 306 314 317 317 316 315 314 313 313 303 300 306 312 313 313 313 313 314 306 305 300 300 302 310 312
291 289 288 288 288 290 290 289 291 293 292 292 292 292 294 295 296 299 300 299 301 303 305 311 315 316 316 302 300 298 310 312 312 312 312 312 313 306 312 304 297 298 297
289 287 287 286 287 289 289 289 290 290 289 288 288 288 289 290 292 292 292 293 296 299 300 301 301 299 296 288 289 290 305 311 313 313 313 312 313 313 311 311 310 307 305
287 286 285 285 286 286 287 288 287 286 285 284 284 284 286 287 288 288 289 291 292 295 295 291 290 287 288 287 288 289 295 307 310 313 314 313 313 307 302 307 307 307 291
286 284 284 285 285 285 287 286 284 283 283 283 282 283 285 285 285 286 287 289 291 291 290 286 285 284 284 286 287 288 293 295 301 305 287 286 287 288 292 296 306 305 288
284 284 283 282 283 285 285 283 282 281 282 282 282 282 283 284 284 285 286 287 287 286 284 283 283 283 283 284 285 286 288 289 285 284 283 284 285 287 290 287 287 285 282
281 282 281 281 282 283 283 280 280 282 282 281 280 280 281 282 282 282 283 283 284 283 282 282 281 282 282 283 283 282 283 283 281 279 280 281 282 283 283 282 282 282 280
280 281 281 280 281 281 282 280 280 281 280 280 280 279 279 280 280 280 280 281 281 280 280 280 280 280 281 280 281 282 281 280 278 279 279 278 278 278 278 279 279 277 276
279 280 279 278 278 280 280 279 280 280 279 278 278 279 278 278 279 279 280 279 279 278 278 277 277 277 278 278 278 277 277 277 277 276 275 275 276 274 274 274 274 274 273
278 278 278 277 277 278 278 280 279 279 278 277 277 277 277 278 277 278 278 278 279 279 276 277 277 276 276 278 280 278 275 274 275 274 274 272 272 271 271 271 271 271 271
275 275 275 275 275 276 276 276 278 279 278 276 275 274 275 275 275 276 275 278 279 279 280 280 278 278 279 279 279 279 278 277 276 272 270 269 269 269 269 268 268 269 269

GFSMW_sfc_thetae_075.txt.gz
Theta_e
310 316 321 324 325 327 325 325 325 325 325 324 324 323 322 324 324 327 328 327 326 328 325 323 321 322 322 322 321 320 321 320 322 318 318 319 321 321 321 322 322 323 324
307 314 320 323 324 323 324 325 325 325 326 326 324 324 323 324 324 327 327 329 326 325 323 321 321 321 323 322 321 320 319 320 321 318 317 312 315 318 319 319 320 321 322
305 310 318 321 324 322 323 323 324 325 327 327 326 323 323 323 321 321 323 324 323 322 321 321 320 320 321 319 319 320 319 316 319 321 318 312 312 314 317 318 319 320 320
305 308 317 319 322 323 325 324 323 324 326 326 323 321 320 319 321 321 322 324 324 322 321 318 318 319 320 320 319 319 318 317 315 318 318 321 318 313 310 314 318 318 318
306 310 316 320 322 324 323 322 322 323 324 325 323 321 321 323 322 322 321 322 324 322 322 319 317 316 318 320 319 319 319 321 320 318 317 317 317 319 316 312 312 315 318
307 311 317 320 322 323 321 319 320 320 323 324 324 322 321 320 320 320 321 322 322 322 321 320 318 317 316 316 316 317 320 320 321 320 320 317 315 313 313 311 312 313 314
308 313 316 318 320 320 318 318 319 318 320 322 322 322 320 320 320 320 320 320 319 319 321 321 320 319 318 317 317 316 316 318 318 321 318 319 319 318 315 315 312 311 314
306 312 317 318 319 319 316 318 317 316 317 319 320 321 320 319 319 320 320 320 320 320 320 321 320 320 320 319 318 317 315 316 318 319 320 319 318 319 318 315 315 311 312
311 309 316 318 319 317 316 317 317 315 315 317 319 320 318 318 319 320 321 321 321 320 320 321 319 320 320 319 319 317 316 315 315 317 318 316 319 318 318 318 318 313 308
311 312 316 316 318 317 316 317 318 319 317 316 320 321 321 320 319 320 319 319 320 321 320 321 319 318 319 319 319 318 318 316 316 316 315 315 317 317 317 313 316 313 313
311 313 314 316 316 316 316 316 317 318 318 317 318 320 320 320 320 318 318 319 319 318 317 319 318 318 319 319 318 318 318 317 317 317 317 316 317 316 315 315 314 312 312
302 310 313 314 314 314 315 315 316 316 318 317 317 317 319 319 318 319 320 321 319 319 317 317 318 319 320 321 320 319 317 316 316 317 316 315 316 315 317 315 314 317 318
298 299 301 303 307 310 311 310 311 314 317 317 317 317 317 317 317 318 318 319 320 320 319 318 316 317 320 321 319 320 320 319 318 318 317 317 316 316 315 316 316 317 316
294 294 295 296 298 299 300 301 304 306 313 316 315 313 316 316 316 318 319 318 318 319 319 319 320 320 319 318 318 319 319 320 320 320 319 319 319 319 320 320 319 317 316
291 291 291 292 294 295 298 299 299 300 302 302 302 302 304 306 308 312 315 318 318 318 318 318 318 319 319 318 318 317 316 317 319 321 320 321 318 309 314 319 319 320 318
289 289 289 289 290 291 292 295 294 294 295 293 293 295 297 299 300 302 303 304 304 305 312 314 314 313 307 290 292 300 316 317 317 318 319 320 309 309 300 300 302 311 316
289 288 287 288 289 290 291 291 291 292 291 290 291 291 293 294 294 296 297 297 299 301 302 300 300 296 290 288 290 290 299 308 313 314 315 316 317 309 317 304 297 298 298
287 286 287 288 288 289 289 289 289 288 288 288 288 289 291 291 292 294 295 295 298 297 293 292 290 291 288 287 288 288 296 301 306 310 312 311 311 312 309 312 311 309 308
286 286 286 286 287 288 288 287 287 287 285 285 286 288 289 289 290 290 291 293 294 292 288 287 286 287 286 286 286 288 295 298 299 290 288 287 289 289 290 295 304 307 288
285 285 285 285 285 286 286 285 284 284 283 283 284 286 286 287 287 287 289 289 289 287 286 285 285 285 285 285 285 288 293 292 288 285 284 285 286 286 287 290 291 287 283
284 284 284 283 284 284 284 283 283 282 282 283 283 284 284 285 286 286 287 287 286 285 284 284 284 284 283 284 284 284 284 283 281 281 280 281 283 283 284 283 282 281 280
282 283 282 281 283 284 283 281 280 282 283 282 282 282 282 283 283 284 284 285 285 284 283 283 282 282 282 282 282 282 282 281 279 278 279 279 280 281 281 280 280 279 277
281 282 281 281 281 282 282 280 280 281 282 281 281 281 281 281 282 282 282 281 281 281 281 280 280 280 281 282 280 280 280 280 280 280 279 278 278 278 278 278 277 276 276
279 280 280 279 279 280 280 281 281 281 281 280 280 280 279 280 280 281 281 280 280 280 280 279 279 280 280 281 282 281 281 280 280 279 278 277 277 276 276 277 278 277 277
277 278 278 277 277 278 278 279 281 281 279 279 279 279 279 278 278 279 279 279 280 280 279 279 279 279 278 279 280 280 279 279 277 278 278 277 277 276 276 275 274 275 276
276 276 276 276 276 276 277 278 279 280 279 278 278 277 278 278 278 277 276 278 279 279 279 279 280 279 279 279 278 278 277 276 276 276 275 274 274 273 273 273 272 272 271

GFSMW_sfc_thetae_078.txt.gz
Theta_e
313 315 320 328 331 334 335 334 330 331 330 329 326 326 327 328 327 329 329 329 328 329 329 327 325 326 321 321 323 328 327 325 327 321 321 323 324 324 324 325 323 324 325
311 313 319 327 330 332 334 333 331 330 330 329 326 326 326 327 329 329 329 330 332 329 327 325 324 322 321 321 326 327 325 324 325 321 320 313 317 321 324 325 324 325 324
310 312 317 325 329 331 333 332 332 332 331 331 329 331 327 327 326 326 327 328 332 327 326 325 323 323 322 321 324 327 326 321 324 325 320 314 312 317 322 323 323 323 322
311 313 315 322 326 330 333 333 332 330 331 332 329 328 324 320 325 326 324 328 327 324 324 324 323 323 324 323 325 326 327 325 321 324 323 324 320 315 314 321 323 323 322
312 314 315 319 325 330 331 333 332 329 331 330 329 327 324 323 326 325 323 325 324 322 321 322 321 322 323 326 327 326 325 325 323 322 323 323 323 322 317 313 317 321 321
314 314 317 321 325 330 331 330 329 327 329 329 329 326 323 323 325 323 323 322 322 322 322 320 320 320 321 325 326 325 325 325 324 323 321 321 319 318 317 315 317 318 320
315 315 317 320 324 327 325 325 328 324 326 328 327 327 327 325 323 324 322 322 321 321 320 320 320 317 319 322 324 324 323 323 323 324 323 323 322 321 319 317 315 315 319
317 314 319 321 323 326 321 322 325 322 324 326 326 326 326 323 323 324 326 326 323 324 325 321 319 319 317 318 318 319 319 321 322 323 324 323 323 323 321 318 316 311 314
318 315 318 322 324 325 318 321 322 321 322 323 325 327 326 326 324 324 324 322 324 323 323 322 321 320 319 317 317 316 316 317 319 319 320 321 322 324 323 322 320 316 310
315 315 319 321 324 321 319 322 322 321 321 322 322 323 325 325 323 323 322 325 324 324 323 322 320 320 320 321 318 316 317 316 316 317 317 318 318 322 322 320 320 320 316
304 315 318 320 319 318 319 319 321 321 320 319 321 322 322 323 322 322 321 322 323 323 321 323 322 321 320 319 318 318 316 315 316 316 315 316 317 316 317 318 317 318 317
300 302 312 315 316 317 317 318 321 321 322 319 320 321 321 323 323 322 321 322 321 322 322 322 322 320 319 319 319 318 318 316 314 315 316 316 317 316 317 316 315 315 315
296 297 299 300 301 307 312 314 317 318 318 318 319 318 318 318 319 321 323 323 322 320 321 321 320 320 320 320 321 322 322 321 320 319 316 316 315 315 316 316 315 316 316
292 293 293 295 297 299 300 303 305 312 315 316 313 311 315 317 318 319 321 321 322 321 320 320 320 320 321 321 322 323 323 322 321 323 322 322 322 322 322 322 321 320 319
289 290 290 291 292 294 295 297 298 301 302 301 301 301 302 304 306 307 308 314 318 320 322 322 322 322 310 295 299 318 320 320 321 322 322 322 319 310 314 323 323 322 321
288 288 289 289 290 291 293 294 294 295 297 295 295 297 299 298 299 300 301 303 304 305 304 301 299 297 293 289 290 293 310 315 317 317 318 320 310 309 301 301 302 310 317
287 287 287 288 289 289 290 291 292 293 293 293 294 296 297 296 296 298 299 300 299 297 295 295 294 289 288 287 288 288 295 302 307 309 307 310 313 305 310 304 297 298 296
287 287 287 288 288 288 289 290 290 291 291 293 292 293 293 295 298 298 298 297 295 292 290 290 290 288 286 286 287 287 297 301 292 288 288 290 292 290 290 295 301 307 290
286 287 289 288 288 288 289 288 288 289 288 287 288 290 292 292 294 294 294 295 293 291 289 289 288 289 286 286 286 293 301 292 288 286 285 286 286 286 287 293 295 290 283
285 285 286 288 287 287 288 287 286 285 285 287 288 289 289 290 290 291 291 291 291 289 289 288 289 286 288 284 285 290 290 286 284 283 283 283 283 284 284 288 290 282 280
284 285 285 285 286 287 288 285 285 285 285 286 286 286 288 288 288 289 290 290 289 289 288 287 287 286 284 284 283 285 287 283 282 281 281 282 282 282 282 282 281 279 279
284 285 285 284 286 287 287 285 283 284 285 286 285 285 285 287 287 287 287 288 287 287 287 286 285 285 284 282 282 282 283 285 284 282 282 282 281 281 281 282 280 280 280
284 286 284 283 284 285 286 283 284 285 285 284 284 284 285 284 285 286 286 287 287 287 286 285 284 283 284 285 282 281 281 281 282 281 281 280 281 281 281 280 281 282 284
282 284 283 282 281 283 284 284 284 285 285 283 283 283 283 283 283 284 284 284 284 284 283 283 282 282 282 282 284 283 284 282 282 282 282 281 281 281 280 281 281 281 280
280 281 281 281 281 282 282 284 284 285 283 283 283 283 282 281 280 280 281 280 281 282 281 281 281 281 279 279 279 280 281 281 281 282 282 281 281 280 280 279 278 278 279
279 279 280 280 280 280 281 282 283 284 284 282 282 282 283 283 282 280 277 278 278 279 279 279 280 279 278 278 278 278 277 278 280 281 279 278 278 277 277 277 277 277 275

GFSMW_sfc_thetae_081.txt.gz
Theta_e
314 315 318 322 328 334 336 339 338 338 336 333 331 330 330 331 331 332 331 331 332 334 333 329 326 326 326 325 326 325 326 326 326 322 320 323 325 326 323 323 323 324 324
313 314 317 321 329 332 336 337 336 336 335 333 332 331 330 332 332 333 332 331 330 332 328 328 325 326 324 322 322 324 323 325 326 319 319 313 317 322 323 323 323 324 324
312 313 314 320 329 331 335 336 335 335 334 333 332 331 328 330 328 330 331 330 332 332 331 327 325 324 323 321 322 323 323 321 325 325 319 312 311 316 322 323 323 326 323
312 313 314 318 326 330 335 336 336 334 334 334 330 328 326 323 328 328 330 330 331 331 330 326 324 323 323 321 322 325 324 324 321 325 324 323 320 314 314 321 322 323 322
313 313 314 316 325 330 333 336 335 334 334 333 332 329 327 327 329 328 328 327 328 326 325 325 323 323 322 321 322 323 325 325 323 323 324 323 322 320 317 313 317 322 322
313 314 315 316 322 329 334 334 334 333 333 333 332 329 328 327 327 326 325 324 324 323 321 323 323 324 323 322 322 324 326 326 326 325 324 322 319 318 317 316 317 318 321
316 315 315 316 320 327 332 333 333 330 332 332 330 329 328 328 325 326 325 323 320 320 320 320 320 321 323 324 324 324 325 326 325 325 322 323 323 322 319 319 316 314 320
320 319 317 318 322 326 330 331 331 327 331 331 330 329 329 327 328 328 326 325 323 323 321 320 320 319 321 322 324 325 326 326 326 325 325 324 321 321 323 317 316 314 315
315 320 318 322 324 328 328 328 329 325 328 330 329 328 327 326 326 327 327 327 327 326 325 321 319 318 318 319 320 321 322 325 325 324 325 323 321 321 323 322 320 317 310
306 314 319 322 325 328 324 324 326 323 325 329 328 326 326 326 327 327 326 324 325 325 326 324 321 318 317 318 317 317 317 317 318 319 318 319 319 320 319 318 321 320 316
299 305 311 323 325 322 321 323 322 323 323 324 326 324 324 325 326 325 325 324 325 324 323 324 322 320 318 317 316 317 315 314 315 316 317 316 318 317 317 318 318 318 319
296 298 302 306 317 318 319 320 322 320 321 323 323 323 323 323 324 323 324 325 323 323 322 322 322 321 320 319 318 316 316 314 314 314 314 314 315 316 317 316 316 316 316
293 294 295 297 300 303 309 312 319 320 321 321 321 321 322 323 322 322 322 323 322 321 321 322 322 322 322 321 319 318 318 317 315 316 314 315 316 315 316 316 315 315 315
290 291 292 293 295 297 298 300 303 309 315 315 313 313 316 321 321 322 323 323 323 320 320 320 321 321 320 316 317 320 319 319 320 321 321 319 318 317 316 316 317 318 318
288 288 289 290 292 293 294 295 297 299 302 303 302 302 303 304 305 306 311 315 311 310 310 316 305 299 296 292 295 305 316 321 321 324 322 322 318 309 312 319 319 321 319
287 287 288 289 289 290 291 292 293 294 297 297 297 298 299 300 300 301 303 300 299 299 300 295 294 292 291 288 289 292 308 314 312 312 307 310 297 297 294 294 295 298 310
287 287 288 287 287 288 289 290 292 295 294 294 295 297 298 298 299 299 297 295 293 293 292 292 290 287 287 287 289 289 300 298 293 292 292 296 294 290 291 294 294 287 287
287 286 286 286 287 288 289 290 290 290 292 292 293 295 297 297 298 297 294 293 291 290 290 290 289 287 286 287 288 289 294 290 287 286 288 288 287 286 287 292 296 285 284
286 285 287 287 287 287 288 287 287 289 288 288 289 293 294 295 295 294 293 293 292 290 289 289 289 287 285 286 288 293 291 288 286 285 285 286 286 285 287 295 289 283 281
285 286 285 286 286 287 288 286 286 285 285 287 289 290 291 292 291 292 292 292 292 290 290 288 288 287 285 285 287 290 288 285 284 284 284 283 283 284 285 287 284 280 279
285 285 286 286 286 287 286 284 285 284 285 287 288 288 289 289 290 291 292 291 291 290 289 287 287 286 285 283 284 287 288 286 285 283 282 283 283 283 283 283 282 280 281
286 287 285 286 288 289 288 286 285 285 285 286 286 286 287 288 289 290 290 289 290 289 287 286 286 286 285 283 283 283 284 285 283 282 282 282 282 282 283 283 283 283 284
286 287 286 286 287 288 288 286 286 287 287 287 286 285 285 286 286 286 287 287 288 287 286 285 284 283 285 285 283 283 282 282 282 283 282 282 282 282 282 281 282 282 283
284 286 285 284 283 286 287 287 288 288 286 285 284 285 285 285 285 284 283 282 284 284 284 284 283 282 281 282 284 284 284 283 283 283 283 283 282 282 282 282 282 282 282
283 284 283 283 283 284 285 286 287 287 285 285 284 283 282 281 279 279 280 280 280 280 281 281 280 280 278 278 279 280 281 283 282 284 284 282 282 281 281 280 280 279 280
281 280 280 280 280 281 281 282 285 286 285 283 284 284 284 283 281 279 277 278 279 279 279 279 280 279 278 278 279 279 279 280 282 282 280 279 279 279 278 278 278 277 277

GFSMW_sfc_thetae_084.txt.gz
Theta_e
312 313 314 314 319 327 335 339 337 336 337 331 329 328 326 329 330 331 331 332 332 332 331 329 328 328 327 326 326 325 324 323 323 319 319 320 321 319 318 319 321 321 321
310 313 314 317 324 330 334 338 336 336 336 332 330 330 329 329 329 330 330 331 332 332 330 329 327 327 325 325 324 324 322 322 323 316 315 311 315 318 319 317 318 320 320
309 311 313 315 325 330 334 337 335 336 335 333 331 329 330 329 326 327 329 330 330 330 330 329 326 325 325 324 324 323 322 319 321 319 315 310 308 312 317 316 317 318 318
308 312 313 314 325 328 335 336 336 334 334 333 329 326 324 323 325 325 328 329 330 329 329 327 326 325 325 324 323 324 323 321 317 320 320 317 314 309 308 315 317 319 318
309 311 313 314 325 328 334 336 335 333 333 332 330 326 324 325 325 326 326 326 327 329 329 326 325 324 324 323 323 323 322 322 319 318 318 316 317 316 312 308 313 316 318
309 311 314 315 322 327 333 335 333 332 331 331 329 328 325 324 324 324 323 325 323 323 324 325 324 324 323 321 322 323 323 322 321 320 319 317 315 315 313 312 313 313 316
315 317 317 313 315 326 331 334 332 330 331 330 330 328 328 325 325 324 324 322 321 320 321 322 322 322 322 322 321 322 322 322 320 320 320 319 318 318 317 314 313 313 316
309 312 315 313 318 327 331 332 331 329 330 330 329 328 327 325 325 326 325 323 321 321 321 321 321 321 322 322 322 321 322 322 321 320 320 319 320 319 318 314 311 308 310
305 307 311 313 321 326 330 330 330 328 330 330 328 327 326 325 324 325 325 325 323 322 321 320 319 319 320 322 322 320 321 321 321 320 320 319 320 319 318 318 317 313 307
300 302 304 308 325 328 328 328 327 327 328 328 328 326 325 325 325 325 325 325 325 323 322 320 318 318 318 318 319 319 320 320 320 319 318 318 318 318 318 317 316 314 312
296 297 299 303 310 323 324 323 324 323 325 325 325 325 324 324 325 325 325 323 325 323 323 321 319 317 317 317 317 317 317 316 315 316 316 316 317 316 315 315 315 314 312
294 294 295 298 301 304 313 321 321 322 322 324 323 323 323 323 323 323 323 323 322 323 322 322 321 319 317 316 316 315 315 315 314 314 314 314 316 315 315 315 314 313 313
292 292 292 293 295 297 300 303 311 320 320 321 321 321 321 321 321 322 322 323 321 321 320 320 320 320 319 317 316 316 315 314 314 313 313 313 313 312 313 314 313 314 314
290 290 289 290 291 294 295 296 300 306 314 314 310 309 311 314 314 317 320 321 321 319 319 317 307 304 300 301 307 317 317 316 316 315 315 315 314 313 312 312 313 314 313
288 288 288 288 289 290 292 294 296 298 302 304 303 304 305 306 308 306 306 305 305 303 304 299 297 295 293 291 292 300 313 318 317 317 318 308 299 295 296 310 309 312 314
288 287 287 287 287 287 290 291 294 295 297 298 298 300 301 301 299 299 297 297 296 295 293 291 291 290 290 289 290 293 306 301 300 298 298 299 291 293 292 289 288 289 299
287 287 286 286 286 287 288 288 290 293 294 295 297 298 299 297 295 294 293 292 292 291 290 289 289 287 288 289 291 292 293 290 289 289 290 291 289 288 290 290 287 286 286
285 286 287 286 286 287 287 288 289 289 290 292 294 296 296 295 294 293 291 290 290 290 289 288 287 286 287 290 290 289 289 287 285 285 287 286 285 286 289 291 285 283 283
286 284 286 287 286 286 287 286 286 287 288 287 289 292 294 294 292 291 291 290 289 288 287 287 286 285 285 288 290 289 287 285 284 284 284 284 284 286 291 288 283 281 280
285 286 285 285 285 285 286 286 285 285 285 286 287 290 291 291 291 291 291 290 289 287 286 284 285 284 284 286 288 288 286 283 282 283 283 284 283 284 285 283 281 278 278
285 286 287 285 285 285 285 284 284 284 286 286 287 287 288 289 289 289 290 289 288 287 285 284 283 283 283 284 286 288 286 283 281 281 281 282 283 284 285 283 281 280 281
286 287 286 286 287 287 287 285 283 285 285 285 285 285 286 288 287 288 288 288 287 286 285 284 283 283 283 283 284 284 284 283 281 280 281 282 283 283 283 283 284 284 283
286 286 285 285 286 287 287 285 285 286 286 285 285 284 284 284 284 282 285 285 286 285 283 282 281 281 282 283 284 283 283 283 281 282 282 282 282 282 281 282 282 281 281
284 285 284 283 284 286 286 286 287 286 285 283 282 281 279 280 281 281 280 279 281 281 282 281 279 278 278 279 281 283 283 283 283 282 282 281 282 281 278 277 278 278 279
282 283 281 281 280 281 282 285 286 286 285 283 282 280 279 278 277 278 278 278 278 280 279 277 278 276 275 278 280 281 280 281 282 282 281 279 279 276 275 274 274 274 274
280 279 279 279 279 280 281 282 284 286 284 283 283 283 281 280 278 276 275 279 279 279 279 279 278 277 278 279 280 280 281 282 282 279 276 275 274 273 273 272 272 272 271

GFSMW_sfc_thetae_087.txt.gz
Theta_e
304 308 309 310 308 307 333 335 333 334 331 329 326 325 324 329 326 326 328 328 328 329 325 326 328 327 325 326 325 325 324 323 324 319 317 317 315 314 318 319 319 318 319
303 308 308 307 307 315 334 334 333 333 330 329 327 323 323 327 323 324 326 330 327 327 326 327 327 326 326 325 325 324 323 323 323 317 315 310 313 316 314 318 318 316 319
301 305 307 307 309 326 333 332 332 332 329 328 327 325 323 322 321 323 324 328 329 328 327 327 327 326 326 324 324 324 322 320 322 320 314 309 307 312 314 314 317 317 318
303 305 307 307 317 331 333 332 332 331 328 327 325 324 322 320 320 322 325 325 326 328 328 328 327 326 326 325 324 324 323 321 318 318 318 316 314 309 307 313 314 316 317
301 303 304 307 318 329 332 331 331 331 329 327 325 322 319 319 319 321 322 323 325 326 325 325 325 325 325 325 325 324 322 322 320 318 316 313 314 314 310 306 309 313 315
307 309 311 313 313 327 331 331 330 330 328 326 324 323 320 319 319 319 320 320 322 324 325 325 325 325 325 324 324 324 323 321 321 320 318 315 313 312 311 308 309 310 312
303 304 305 307 310 314 328 329 328 327 327 325 324 323 322 319 319 320 320 321 319 318 320 323 323 323 324 323 324 323 322 322 320 320 319 319 316 316 316 313 313 311 311
301 301 302 303 306 313 326 328 326 326 326 325 324 325 322 321 321 322 322 320 320 319 320 320 322 322 323 322 323 323 322 322 320 319 319 319 319 318 316 313 312 308 310
297 298 301 301 305 319 325 327 326 326 326 326 326 324 322 321 320 321 321 321 321 321 320 320 320 321 321 321 321 321 321 321 320 319 319 319 319 318 317 316 314 309 304
294 296 297 299 303 308 318 321 325 325 326 327 325 323 322 321 323 324 323 320 321 321 320 319 319 319 320 321 320 319 320 320 320 319 318 317 317 317 317 314 313 312 309
293 293 294 296 300 303 306 309 321 322 325 325 324 322 322 323 324 324 323 323 322 320 320 319 318 318 318 318 320 319 319 318 318 317 317 316 316 314 315 314 312 312 311
292 292 292 293 294 297 299 303 308 320 321 322 322 321 322 323 323 322 321 323 322 322 320 320 318 317 317 317 317 317 318 317 316 315 315 315 316 314 315 314 313 313 312
290 290 290 290 291 294 295 297 300 312 320 321 320 320 320 321 320 321 321 322 321 320 320 320 319 318 317 317 316 316 316 316 316 315 315 314 314 313 313 313 312 313 313
289 289 288 289 289 290 291 294 296 300 309 311 311 310 313 313 312 313 315 317 317 311 306 305 303 302 302 305 313 316 315 315 315 315 315 314 314 314 313 313 312 312 311
287 287 287 287 288 288 290 291 294 296 301 304 305 305 307 306 304 303 302 301 301 300 300 297 296 295 294 293 298 309 313 315 312 309 300 296 296 293 294 310 308 309 312
286 286 287 286 286 287 288 289 290 293 297 298 299 300 299 298 298 296 296 295 294 293 292 291 291 292 292 291 292 299 298 298 297 297 296 292 292 290 289 289 287 288 294
285 285 285 286 286 286 287 287 289 291 292 295 296 296 296 294 293 293 293 291 290 289 289 289 289 290 291 290 290 290 290 289 289 289 290 289 289 291 288 286 286 285 285
284 285 285 286 286 287 287 287 288 289 289 290 293 294 294 292 292 291 289 289 288 287 287 286 287 288 289 289 288 287 287 286 285 285 286 286 287 290 288 285 283 283 283
285 284 286 286 285 285 287 287 286 287 287 286 288 291 292 291 290 289 288 288 287 285 285 285 285 286 287 289 288 286 285 284 284 284 285 285 285 288 288 284 281 280 281
285 285 285 285 285 284 285 285 285 285 285 285 286 288 289 290 289 288 287 286 285 284 284 283 284 285 285 287 287 286 284 281 281 282 283 285 284 285 284 282 281 279 279
285 286 287 285 285 285 285 283 283 283 285 285 285 286 286 286 287 288 287 286 284 283 282 282 282 283 284 285 286 285 283 281 281 281 281 283 285 285 285 284 282 281 281
286 286 285 286 288 287 286 283 282 284 285 285 284 284 284 284 285 285 285 285 284 283 282 282 281 282 282 284 284 284 283 283 280 280 281 282 284 284 284 283 284 283 280
284 285 284 284 285 286 286 283 284 285 283 281 280 280 281 281 281 281 282 284 284 282 280 279 278 279 280 283 284 283 283 283 281 281 282 282 282 281 281 282 282 279 278
282 282 281 280 280 283 284 285 285 284 282 280 279 279 279 279 279 279 279 279 280 279 279 278 276 277 278 279 281 282 282 282 282 281 281 280 279 277 276 276 276 275 274
279 280 279 279 279 280 281 283 285 285 282 280 279 278 278 277 277 278 277 278 279 278 276 276 276 275 276 279 282 281 280 281 280 279 278 276 275 274 273 273 273 273 273
278 277 277 277 278 279 280 281 282 283 283 282 281 279 278 277 276 275 275 279 279 280 280 279 277 277 280 281 282 282 283 282 280 276 273 272 272 272 271 271 270 271 271

GFSMW_sfc_thetae_090.txt.gz
Theta_e
302 301 305 305 307 307 325 334 335 334 333 331 328 327 327 328 326 328 327 329 330 329 328 325 327 330 327 325 324 323 322 323 325 323 318 316 319 320 320 320 319 318 319
303 303 302 304 304 305 323 333 333 332 333 331 330 327 326 326 329 324 324 326 325 326 326 326 326 327 325 324 324 323 322 321 325 319 315 309 312 314 317 317 317 317 317
304 303 304 302 304 306 327 332 332 331 332 330 325 323 321 321 323 325 321 323 325 325 326 327 327 326 325 323 324 323 322 320 321 322 315 309 307 311 313 313 316 314 315
305 304 305 307 305 308 327 332 333 331 329 327 325 323 322 320 322 325 320 321 324 324 325 327 326 326 326 324 323 324 323 323 318 319 320 316 314 308 306 311 313 316 315
303 304 305 307 309 320 329 332 332 329 328 328 325 323 320 318 321 320 319 319 320 323 325 326 326 325 325 325 324 324 322 323 320 317 316 314 314 313 309 307 309 312 316
301 302 305 306 305 310 328 331 330 328 327 326 324 322 320 318 319 319 319 321 322 323 324 326 326 325 325 324 324 324 323 322 321 319 317 315 313 312 310 308 308 310 311
298 300 301 303 304 308 312 329 328 325 326 324 323 322 321 320 319 319 319 321 321 322 323 324 324 324 325 324 325 324 323 322 320 319 317 317 316 316 315 312 309 309 311
297 298 300 300 303 307 315 328 327 323 323 323 322 322 321 320 320 320 321 320 320 321 321 322 323 323 324 324 324 324 323 322 321 320 319 318 318 317 316 313 311 308 309
295 296 297 297 300 303 310 321 326 325 323 323 322 321 321 319 319 320 321 319 321 319 318 319 320 321 322 322 322 323 321 322 321 320 319 319 319 318 317 316 314 311 306
293 293 294 295 298 301 305 314 321 324 323 323 323 322 321 321 322 320 319 320 320 320 319 319 319 320 320 320 320 321 321 320 320 320 318 317 318 317 316 315 314 312 309
291 291 292 294 296 299 301 305 310 322 322 322 322 320 321 322 323 321 320 320 320 320 319 319 319 318 319 319 319 318 319 319 319 319 318 316 316 316 315 314 313 311 310
289 290 290 291 293 293 297 299 302 307 320 321 321 321 322 323 322 322 322 321 320 320 319 319 318 318 318 318 318 318 318 318 317 317 316 315 316 315 315 314 312 311 311
288 288 288 289 290 291 292 295 299 301 313 320 320 320 320 321 321 321 322 322 321 320 320 319 318 317 317 317 317 318 318 317 318 317 316 315 315 313 313 312 312 312 312
287 287 287 287 288 290 290 292 296 300 303 312 315 313 312 312 312 313 312 313 311 309 307 306 305 306 307 311 316 317 317 317 317 317 317 316 315 314 314 312 312 311 311
286 286 285 286 287 288 289 290 292 295 300 303 304 305 304 304 304 303 301 300 299 299 299 298 297 297 297 296 304 313 315 313 303 301 298 296 295 293 297 311 309 311 310
285 285 285 285 285 286 287 289 290 291 296 296 297 299 300 298 296 296 295 294 293 293 293 292 293 293 293 292 293 300 300 300 297 294 293 293 291 289 289 288 287 288 297
284 284 284 284 285 285 287 287 289 291 291 294 295 294 294 293 293 292 291 290 289 289 289 290 290 289 289 289 290 290 291 290 290 291 291 291 290 289 287 286 286 285 286
284 284 284 284 285 286 286 288 289 289 289 289 291 292 291 290 290 289 288 287 287 287 287 288 289 288 287 287 287 287 287 286 285 286 287 289 290 287 286 285 283 283 283
285 284 285 285 285 285 285 286 286 287 286 286 287 289 288 287 287 285 285 286 285 285 285 286 287 286 286 287 286 286 285 284 284 285 285 287 286 287 287 284 282 281 282
285 285 285 284 283 284 285 284 284 284 284 285 285 286 287 286 285 285 284 284 284 283 284 283 284 286 285 286 286 285 284 282 282 284 284 285 284 285 285 283 282 280 280
285 286 286 284 285 285 284 283 283 282 283 284 284 284 285 285 285 285 285 284 283 282 282 282 282 283 284 284 285 285 283 282 282 282 282 284 285 285 285 284 282 280 281
283 284 282 282 285 286 285 283 281 282 282 281 281 281 282 282 283 284 284 284 283 281 281 281 281 282 283 284 284 284 283 283 281 280 282 283 284 284 284 283 283 282 277
281 282 281 281 281 283 285 282 283 283 281 280 279 279 279 280 280 280 281 281 281 280 279 279 279 280 282 282 284 283 283 282 280 281 281 281 281 280 279 281 280 277 276
279 280 279 279 279 282 283 283 282 282 280 279 278 279 278 278 279 279 280 279 278 278 278 277 277 278 279 280 281 282 282 282 280 278 277 277 276 275 275 275 275 275 274
277 277 277 277 278 280 281 282 285 283 280 279 278 278 278 278 278 278 278 278 278 278 277 276 277 277 278 280 282 281 280 279 278 277 276 274 273 272 272 272 272 273 273
275 275 275 276 276 277 278 280 282 283 282 280 278 277 276 276 276 276 276 280 280 280 280 280 278 279 282 283 283 282 281 279 278 274 272 271 270 270 270 270 270 271 271

GFSMW_sfc_thetae_093.txt.gz
Theta_e
302 306 302 302 303 301 302 319 333 335 335 332 331 330 329 329 330 330 331 330 331 330 329 328 326 326 326 325 326 326 323 321 324 323 318 317 320 322 322 322 321 319 319
304 306 307 308 301 303 305 317 331 334 334 333 332 330 332 330 330 330 330 331 328 328 328 327 326 327 327 326 324 324 321 322 324 320 315 310 313 316 319 320 320 318 318
301 303 305 306 307 305 306 323 329 333 334 333 327 323 324 325 325 326 328 327 326 326 327 325 328 327 326 324 324 323 322 320 323 318 315 309 308 312 314 315 317 316 316
302 302 303 304 305 306 309 323 330 332 333 331 327 324 325 324 326 328 328 324 324 324 325 324 326 327 326 323 323 324 323 321 319 321 320 317 315 310 307 312 314 314 315
300 299 303 303 304 306 308 322 330 331 332 329 328 325 323 323 321 322 324 321 322 324 326 327 326 325 325 324 324 324 323 322 320 320 317 315 315 314 311 307 309 312 314
298 300 301 302 302 305 309 322 328 329 330 328 326 325 321 319 320 320 321 319 321 323 325 325 325 326 324 324 323 323 323 323 322 320 319 315 313 311 310 308 309 310 311
297 297 297 297 299 301 305 317 329 328 327 327 324 323 320 320 319 320 319 319 320 321 322 325 325 324 325 324 324 323 323 323 321 320 318 317 316 316 314 311 308 307 309
295 295 295 296 297 300 303 310 329 326 326 325 323 322 321 320 320 320 319 320 321 322 322 322 324 325 324 324 324 324 323 323 322 320 318 317 317 317 316 313 311 307 308
293 293 293 294 296 297 300 304 323 324 325 324 322 321 321 320 319 319 321 321 321 321 321 323 323 322 323 323 323 323 322 322 322 321 318 317 318 317 317 316 315 311 305
291 291 291 292 295 296 299 302 310 323 323 323 322 321 320 320 319 319 318 318 317 318 319 318 319 319 320 320 321 321 322 322 322 320 318 318 318 317 317 316 315 313 310
288 289 290 291 293 296 296 299 304 319 322 322 321 320 319 319 319 318 317 317 317 318 318 318 317 317 318 319 319 319 320 320 320 320 319 317 317 315 314 314 313 312 312
288 288 289 289 291 292 295 296 298 305 314 322 320 319 320 320 319 318 317 318 317 316 316 318 318 318 318 318 318 317 318 318 318 318 318 317 317 315 314 313 312 312 311
287 287 287 287 288 290 292 294 295 299 304 317 320 319 320 320 321 321 320 320 318 318 319 318 317 318 318 317 317 318 317 318 318 318 317 316 317 315 314 313 312 311 311
286 286 285 286 287 288 289 291 292 296 300 303 311 315 318 318 317 316 316 315 313 310 308 307 306 307 309 313 316 317 317 317 318 318 318 317 316 315 314 313 312 312 311
285 285 284 284 285 286 287 289 291 293 297 298 298 299 305 308 306 304 303 302 301 300 300 299 298 297 297 297 300 314 315 308 304 301 299 298 299 299 307 313 312 311 310
284 284 284 284 285 285 286 288 289 291 294 293 293 294 295 296 295 295 295 294 294 294 294 293 292 291 292 290 293 302 302 300 298 294 293 292 291 290 289 289 288 291 307
283 283 284 284 285 285 286 286 288 290 290 291 290 290 290 290 290 290 290 290 290 291 290 289 289 288 288 289 290 291 292 292 292 292 292 290 289 288 287 287 286 286 286
283 283 283 284 284 285 285 286 286 287 287 287 288 289 288 286 287 287 286 287 287 287 288 287 287 286 287 287 288 288 288 287 287 287 290 289 287 287 286 285 284 283 283
284 284 284 284 284 284 285 285 284 284 285 284 285 286 287 286 285 284 284 285 285 285 285 286 286 285 285 287 286 286 285 284 284 286 287 286 286 287 288 285 283 282 282
284 284 284 285 284 284 284 283 282 282 281 283 283 285 285 285 285 284 284 284 284 283 283 283 284 285 285 286 286 285 285 283 283 284 284 285 285 285 285 284 283 280 280
283 283 282 282 284 284 283 280 279 279 281 282 283 283 283 284 284 284 284 283 283 282 282 282 282 283 284 284 285 285 283 283 283 283 283 284 285 285 284 283 281 280 279
280 280 280 281 283 283 282 280 279 280 281 281 280 280 281 282 283 282 282 282 281 281 281 281 281 282 283 284 284 284 284 283 281 281 282 283 284 284 283 281 281 279 277
278 279 279 279 281 282 281 279 280 280 279 279 279 279 279 279 280 280 280 280 280 279 279 279 279 280 282 282 283 283 282 281 279 280 280 280 280 280 279 280 279 276 274
276 277 277 277 278 280 282 281 281 281 279 278 278 279 279 278 279 279 279 278 278 278 278 278 278 279 280 280 281 281 279 279 277 277 276 276 276 275 275 274 275 274 273
274 275 275 275 276 278 279 281 283 281 279 278 278 277 277 277 278 278 278 278 279 279 277 278 278 278 279 281 282 280 278 277 276 276 275 273 273 272 272 272 272 273 272
273 273 273 273 274 275 276 278 281 282 280 278 277 277 276 276 276 277 278 281 281 281 281 281 281 282 283 283 282 281 280 279 277 273 271 270 270 270 270 270 270 270 270

GFSMW_sfc_thetae_099.txt.gz
Theta_e
308 309 310 310 311 312 312 313 313 316 316 336 335 332 330 333 335 336 335 335 334 332 330 330 330 331 330 329 328 327 326 326 328 324 321 322 326 325 327 327 326 324 325
306 307 307 308 308 308 310 310 312 314 314 327 335 335 332 333 336 336 334 335 333 331 329 329 329 329 328 328 328 326 324 325 327 321 318 313 316 321 325 326 325 324 324
303 304 304 305 306 306 307 307 309 311 314 318 334 335 334 334 331 333 332 333 334 331 330 331 330 328 329 327 327 327 324 322 325 324 319 311 311 314 319 322 325 323 322
303 303 302 302 303 304 304 304 306 310 314 319 329 331 327 325 331 333 332 332 330 329 328 330 331 329 328 327 329 328 326 325 321 323 326 322 321 314 310 316 320 322 322
301 300 300 300 301 300 300 302 304 306 312 319 326 333 329 332 335 334 330 330 332 329 323 322 328 328 328 329 330 326 326 325 324 322 319 318 319 320 316 311 314 317 320
298 298 299 298 297 298 298 299 301 303 308 320 327 332 330 331 331 330 329 331 329 324 324 326 328 329 328 329 330 328 326 325 325 324 321 319 317 317 319 316 315 314 315
295 295 295 294 294 295 296 298 299 301 306 311 330 331 330 331 331 330 329 328 326 323 324 328 327 327 329 329 331 326 327 325 324 323 322 322 321 324 322 320 316 314 313
293 293 293 293 292 293 294 295 298 299 304 308 330 330 328 328 331 332 328 328 327 327 328 328 329 328 329 326 327 326 326 326 324 324 323 322 322 322 322 322 318 311 310
292 292 292 292 291 292 293 294 296 298 303 309 329 329 325 324 325 331 331 330 328 327 326 327 326 325 324 325 327 324 325 325 324 324 323 322 321 322 322 322 320 316 307
291 291 291 291 291 292 292 293 295 298 302 308 326 324 324 325 324 325 324 325 325 323 325 325 324 323 324 327 326 324 324 324 324 324 322 321 321 322 321 318 320 317 313
290 290 290 290 290 290 291 292 293 296 301 303 320 323 323 321 321 322 324 324 322 322 322 322 323 324 324 325 323 323 323 322 322 322 321 320 320 318 318 318 317 314 313
289 289 289 289 288 288 289 289 292 293 298 300 308 320 321 322 322 321 322 323 320 320 321 322 322 321 322 321 321 320 321 321 320 320 320 319 319 318 318 317 315 314 314
288 289 288 287 287 287 287 288 290 291 295 297 298 301 302 317 321 321 320 320 319 319 320 320 320 319 319 318 318 319 321 320 320 320 320 319 318 316 316 316 314 314 313
286 287 286 286 286 286 287 287 288 289 291 294 294 294 296 298 305 320 321 320 320 320 320 318 316 314 312 314 318 318 319 318 320 319 319 319 318 317 316 315 314 314 313
284 285 284 285 285 285 285 286 287 287 289 290 291 292 293 293 293 299 299 316 311 308 306 303 300 299 299 297 301 310 317 318 310 303 300 297 309 308 312 315 315 313 312
283 284 284 284 284 284 284 285 285 286 288 287 288 291 291 291 289 290 292 294 297 296 295 293 293 293 293 290 293 303 306 302 299 297 295 293 293 292 292 292 295 307 313
283 283 283 283 283 283 284 284 284 285 285 286 286 287 289 289 290 288 288 287 288 290 289 289 289 288 290 290 291 292 295 293 293 292 291 291 290 290 290 288 288 286 287
282 283 283 283 283 284 283 284 284 284 283 283 284 285 286 287 288 287 286 285 285 286 286 287 288 288 288 288 289 289 290 288 288 288 288 288 288 288 288 287 285 285 285
282 282 283 282 283 283 283 283 282 283 282 282 282 283 284 283 284 285 285 285 284 284 284 286 286 286 287 288 287 288 287 286 285 286 287 286 286 287 288 285 283 281 280
282 282 283 282 282 282 282 281 281 280 280 281 282 283 283 282 282 282 283 284 284 283 284 283 284 285 286 287 287 287 286 284 284 285 285 286 285 286 285 284 282 279 278
281 282 282 281 282 282 281 279 279 278 280 281 281 282 283 282 282 282 283 282 282 282 282 281 281 282 284 285 286 286 284 283 282 282 282 283 284 284 283 282 280 278 279
279 280 280 280 281 283 282 280 279 280 280 280 281 280 281 282 283 281 282 283 283 281 281 280 280 280 281 282 283 283 283 283 281 280 281 282 283 282 282 280 280 280 279
278 280 279 280 280 281 281 280 281 281 281 280 279 281 281 281 282 282 282 282 283 282 282 281 281 281 281 280 281 281 280 280 279 279 280 280 280 279 279 279 279 278 277
276 278 278 278 277 279 280 280 282 282 281 280 280 280 280 280 282 282 282 282 283 282 282 282 281 281 281 281 280 280 280 279 279 278 279 277 277 276 276 276 277 276 276
275 276 276 276 276 278 279 280 281 283 280 280 280 280 280 280 279 280 281 282 283 283 282 282 282 281 280 280 281 280 280 279 278 279 279 278 277 275 275 275 275 276 276
273 273 273 273 274 276 276 277 280 282 281 280 279 279 279 279 279 279 279 280 282 282 282 282 282 282 281 281 280 280 279 278 278 278 276 275 275 274 274 273 273 274 273

GFSMW_sfc_thetae_102.txt.gz
Theta_e
312 314 315 316 317 318 317 317 319 321 322 322 319 330 333 338 339 341 342 342 342 341 340 338 336 335 334 334 333 331 328 329 332 328 325 326 330 329 329 330 328 327 329
310 312 313 314 315 315 316 315 316 317 318 320 321 325 332 334 336 340 343 341 340 341 338 336 333 334 333 332 333 332 326 328 331 323 321 316 318 327 328 328 328 327 327
308 309 310 311 312 312 312 312 313 314 316 318 320 322 331 334 336 336 339 340 340 339 337 335 332 332 333 332 333 331 328 324 327 328 324 315 316 317 323 325 327 325 324
308 308 308 308 308 309 309 308 308 310 311 315 317 321 322 328 332 334 336 337 336 335 335 332 331 331 332 332 333 332 331 329 323 326 329 330 323 318 312 317 325 328 325
306 305 305 306 306 306 305 302 303 305 306 308 310 318 321 332 333 334 333 333 333 333 334 332 332 331 332 331 333 334 334 332 327 325 324 325 325 327 321 313 316 322 324
305 304 305 305 305 305 303 300 299 300 303 305 308 313 323 327 332 332 331 330 331 331 332 333 334 332 331 330 329 331 334 332 330 327 326 325 322 322 320 318 318 317 319
303 302 302 302 302 301 301 298 297 297 300 302 305 313 324 325 333 332 332 328 328 329 331 333 328 329 330 331 330 329 333 332 329 327 324 324 323 324 322 320 318 316 316
301 301 300 300 300 299 300 297 294 295 298 301 306 312 328 329 335 333 332 330 330 332 336 331 327 327 329 330 331 330 334 333 332 328 326 324 324 328 322 321 318 316 315
299 299 299 299 299 298 298 294 293 294 296 300 303 312 334 335 333 332 332 331 337 336 332 329 327 327 328 330 329 331 332 329 327 327 328 324 325 326 324 322 321 317 311
298 297 297 297 297 297 297 293 293 293 295 299 302 310 330 331 332 332 332 329 334 332 331 328 329 327 328 329 330 330 328 325 326 327 324 325 327 325 324 322 321 321 317
296 295 296 296 296 297 296 292 291 292 293 296 301 305 326 328 329 329 328 327 329 330 328 328 325 324 326 327 326 325 327 327 323 326 324 324 325 323 323 324 327 325 323
294 295 295 294 295 295 293 290 290 290 291 294 298 302 304 314 323 323 324 326 325 328 328 327 324 323 325 325 326 325 325 324 322 323 322 322 322 322 323 323 322 319 320
293 293 294 293 293 293 291 288 288 288 289 292 295 297 297 300 303 319 323 324 326 326 325 325 323 323 327 325 324 324 323 323 323 322 322 322 322 321 320 321 318 317 316
290 291 291 292 292 292 291 287 286 287 287 289 292 292 295 296 297 302 312 321 323 323 323 325 322 322 322 322 321 321 321 321 323 326 324 324 322 320 319 318 317 316 314
287 288 289 289 290 289 289 289 286 286 288 287 287 290 292 293 293 293 295 300 309 319 317 312 309 309 309 301 307 316 320 320 319 309 306 300 298 300 312 317 316 315 313
286 287 287 287 288 287 286 286 287 286 286 286 286 288 288 291 292 291 290 290 291 294 299 300 300 296 293 291 292 302 312 307 306 301 299 296 295 294 294 296 299 309 313
284 284 285 286 286 286 286 286 286 287 285 284 285 285 286 287 288 289 289 287 287 288 289 292 291 290 290 290 292 293 300 296 294 295 295 295 293 292 291 289 289 288 289
283 283 284 285 285 285 285 286 286 285 285 284 283 284 284 284 285 287 286 286 286 285 285 286 288 288 288 288 289 289 291 290 289 289 290 291 290 289 290 289 286 285 285
284 283 284 285 284 284 285 285 284 285 284 283 284 284 283 283 284 283 284 285 285 284 283 284 286 287 287 288 288 288 287 286 286 287 287 287 287 288 289 287 284 283 281
283 284 284 284 284 283 284 284 283 282 282 282 283 284 285 283 283 284 283 283 283 282 282 281 283 285 285 287 287 287 286 284 284 284 285 285 285 285 286 284 282 279 280
283 284 284 283 283 285 284 282 282 281 282 284 284 284 284 284 284 285 285 284 284 282 281 280 280 281 283 284 286 285 284 283 282 282 282 284 284 284 283 282 280 279 280
282 283 283 282 284 284 285 283 281 283 284 283 283 283 284 285 285 285 285 285 285 284 283 281 281 280 281 282 283 283 282 282 281 280 281 282 283 282 282 281 281 280 279
281 283 283 283 283 283 283 282 284 285 285 284 283 283 284 284 285 285 284 286 285 285 284 283 282 281 283 282 282 281 280 280 278 279 280 280 280 280 280 280 280 279 278
279 281 282 281 281 282 283 283 285 286 285 284 283 283 283 284 283 285 285 282 284 284 283 283 283 283 282 283 283 283 283 281 281 280 280 280 279 279 278 278 279 280 278
278 279 279 279 279 281 281 283 284 285 284 283 283 284 283 283 283 281 281 282 282 282 282 282 282 280 279 281 281 282 282 282 281 282 282 281 281 280 279 280 280 281 280
277 276 277 277 278 280 279 281 283 283 283 282 282 282 283 283 283 283 281 280 280 280 281 281 281 281 280 280 280 279 279 280 281 282 281 279 280 279 279 278 278 279 279

GFSMW_sfc_thetae_105.txt.gz
Theta_e
313 314 316 318 319 319 319 319 320 321 322 321 322 323 321 331 338 340 344 348 346 348 344 342 343 341 336 339 336 335 334 333 335 331 329 332 334 334 333 333 332 330 328
311 312 314 315 316 316 317 317 317 318 318 319 320 322 324 326 332 339 342 345 343 344 340 341 340 340 336 338 335 334 331 332 332 326 323 317 320 327 331 331 329 328 327
310 310 312 313 314 313 313 313 313 314 316 318 318 320 323 325 327 337 338 340 344 344 341 341 340 338 337 335 334 334 330 327 329 329 324 316 316 319 326 329 329 328 327
309 310 310 310 311 312 313 312 312 311 313 315 314 314 316 319 322 330 335 338 342 340 340 342 338 336 337 334 334 334 332 332 325 328 329 331 327 320 315 322 327 328 326
308 308 309 309 310 311 310 310 309 309 310 310 310 308 311 318 324 327 335 338 340 339 339 340 337 334 334 334 332 333 333 334 330 326 325 329 328 328 322 314 319 324 327
308 308 309 308 308 309 309 308 307 306 306 304 304 304 306 311 319 325 331 336 339 337 336 335 335 335 336 333 332 334 336 335 333 332 329 327 324 322 323 321 319 319 322
306 305 305 305 305 305 306 304 302 301 302 299 300 302 305 308 314 322 328 335 336 332 331 333 331 334 333 326 324 328 333 335 333 332 331 328 330 329 326 324 322 317 319
304 304 304 303 303 303 303 300 299 299 298 297 298 301 304 308 315 322 329 332 334 334 331 331 331 332 332 331 332 333 334 333 332 332 332 331 330 330 328 324 322 316 314
303 302 302 302 302 301 300 298 298 298 296 295 296 299 303 308 321 329 334 335 337 334 332 331 331 331 332 331 332 329 330 332 334 335 331 329 328 329 327 326 322 317 312
300 301 301 301 301 301 299 298 298 296 294 294 295 298 301 306 324 332 333 334 336 335 334 332 330 328 328 331 331 327 330 331 334 334 332 330 329 328 326 325 322 320 316
298 299 300 300 300 300 299 297 295 294 293 293 294 296 299 303 310 328 331 333 335 334 332 331 328 328 328 325 325 328 326 328 330 329 327 325 327 327 326 324 326 321 320
297 298 299 299 298 297 297 296 293 293 292 291 292 294 296 298 302 307 319 331 332 332 332 328 329 329 327 328 321 319 323 325 326 327 325 323 325 326 326 325 321 320 321
295 296 297 296 295 295 295 294 291 290 291 290 290 291 292 295 296 298 303 323 328 327 326 328 328 328 328 327 325 321 320 325 327 327 324 322 324 322 323 323 321 322 321
293 293 294 294 294 293 293 292 292 289 289 289 288 288 290 292 294 295 297 298 306 324 325 326 327 326 326 327 328 325 324 325 326 326 325 325 323 321 322 321 320 321 319
290 290 290 290 291 291 290 291 290 290 287 286 286 286 287 290 292 293 292 294 293 295 308 318 313 317 314 315 323 324 322 322 322 317 314 305 299 296 298 314 319 318 317
287 287 288 288 288 288 288 289 288 289 288 285 285 286 287 287 288 289 290 290 290 289 291 294 298 297 295 292 295 312 315 312 310 303 301 299 296 296 291 294 296 307 315
285 285 285 286 286 286 287 287 288 288 287 285 285 285 285 285 285 287 287 287 288 288 286 287 289 290 291 291 294 295 299 295 295 295 296 296 295 295 294 291 289 288 289
284 284 285 286 286 287 287 288 288 286 285 285 285 285 285 284 285 284 284 285 285 285 285 284 286 287 288 289 290 290 291 290 289 289 290 291 292 291 293 290 286 285 285
284 284 285 285 286 285 286 286 285 285 284 284 284 285 285 285 285 284 283 283 282 282 282 283 283 285 285 287 288 288 287 285 285 286 287 287 288 287 290 287 285 284 284
284 285 285 284 285 285 285 284 284 283 283 284 284 285 286 285 285 285 285 285 284 281 281 281 281 283 283 285 286 286 285 283 283 284 284 285 285 286 286 285 284 280 280
284 285 285 284 284 286 286 284 284 283 284 285 285 285 285 286 286 286 285 285 285 285 283 281 280 281 282 282 284 285 283 282 281 281 281 283 284 284 284 283 281 279 281
284 285 284 284 285 285 286 285 284 285 286 286 285 284 284 285 286 285 286 286 285 285 284 284 283 283 281 282 282 282 282 282 280 279 281 282 283 283 282 281 282 281 280
283 284 283 283 284 284 284 284 286 288 288 287 285 285 285 284 285 284 283 283 285 284 283 283 281 281 283 284 283 282 281 281 279 280 280 281 281 281 280 281 280 279 279
281 283 282 282 281 283 284 284 285 287 286 285 285 286 285 284 283 283 283 281 280 282 281 280 281 280 280 281 283 284 283 283 283 283 283 282 281 281 280 280 280 279 279
280 280 280 281 281 282 282 283 284 285 284 284 284 285 285 285 283 281 280 280 280 280 279 280 279 278 277 279 281 281 281 282 283 284 284 283 282 281 281 281 281 281 281
279 279 278 279 279 279 279 281 283 284 283 283 283 282 283 284 283 282 281 280 279 279 280 280 279 280 279 279 280 280 281 282 283 283 281 281 281 280 280 279 280 281 280

GFSMW_sfc_thetae_111.txt.gz
Theta_e
309 311 310 310 310 309 309 309 309 309 309 309 309 310 311 313 314 316 319 320 333 338 339 338 337 339 337 335 334 334 333 327 331 326 324 323 329 329 328 331 330 329 328
308 308 308 307 307 306 306 306 306 306 306 308 308 308 309 311 313 315 317 318 320 324 337 338 337 338 336 334 333 333 328 327 330 323 321 318 319 323 329 329 327 327 326
305 305 306 305 305 304 304 304 304 304 304 305 305 304 305 306 307 309 311 313 316 319 324 336 337 337 335 334 332 329 329 324 326 325 318 312 310 312 317 324 327 326 324
304 304 303 302 302 302 303 302 302 301 302 302 301 299 298 298 301 303 307 309 311 314 319 325 334 336 334 331 328 322 322 318 323 325 326 319 316 310 311 316 321 325 324
301 300 300 301 301 301 299 300 300 300 300 300 299 297 296 297 300 301 302 305 307 311 315 321 328 331 332 331 323 320 323 326 326 320 324 324 319 316 311 310 315 322 324
300 300 301 301 299 298 297 297 298 298 299 298 297 296 295 296 296 298 299 302 304 307 311 318 325 330 330 330 328 325 326 326 326 326 325 322 320 319 316 310 309 315 320
298 298 298 297 298 296 296 297 295 294 295 296 296 295 294 295 295 297 299 301 303 306 308 315 320 326 328 329 328 328 328 327 325 325 324 324 324 321 321 314 311 312 317
298 297 297 296 295 296 295 293 293 291 292 294 294 294 294 295 296 298 300 301 303 307 310 312 318 321 326 328 329 328 325 322 326 324 325 325 324 323 321 320 313 311 313
296 296 296 295 295 294 294 293 292 291 290 292 292 293 294 294 294 296 299 301 305 308 312 312 316 315 319 321 327 326 323 321 317 317 325 324 324 324 323 320 317 314 310
294 295 294 293 294 293 293 291 291 292 290 290 290 292 292 293 293 295 297 298 301 304 307 316 317 320 316 321 326 325 323 323 322 320 321 321 324 324 324 321 318 317 312
292 292 292 292 292 291 291 291 290 290 289 289 289 290 290 291 292 293 294 295 298 301 305 308 322 324 325 325 324 324 322 321 320 322 321 319 324 323 323 322 321 317 316
290 290 290 290 289 289 289 290 290 289 289 289 289 289 289 290 290 291 292 294 295 297 300 306 316 324 324 324 324 323 323 322 322 322 321 321 323 321 321 322 320 319 318
288 287 287 287 287 288 288 289 289 288 288 288 288 288 288 288 288 288 289 291 291 293 295 299 301 310 323 325 326 325 325 325 324 323 321 320 320 321 321 320 320 319 320
287 286 285 286 286 287 287 288 287 288 287 287 287 286 287 288 287 287 287 287 289 289 291 293 295 297 299 302 307 323 322 319 318 319 316 316 318 320 321 321 320 320 319
285 285 284 284 285 285 286 287 286 286 287 286 286 286 287 288 287 286 285 285 285 286 288 289 290 291 292 291 293 302 318 315 314 311 308 306 304 303 308 318 318 318 318
283 283 284 283 284 284 285 285 285 285 286 285 285 286 286 287 286 286 284 283 283 283 284 285 286 287 289 289 289 294 317 314 310 303 300 299 295 293 294 294 291 297 316
282 282 283 283 283 283 285 284 285 286 285 285 285 286 286 286 286 286 285 283 282 282 282 282 283 284 286 288 288 288 294 298 297 296 296 294 295 296 292 290 289 287 288
280 281 282 283 283 285 285 285 285 285 284 284 284 285 284 284 285 285 285 285 283 282 281 281 282 282 284 287 287 285 285 285 286 286 287 288 289 291 293 289 287 285 285
283 280 283 284 285 285 286 286 284 284 284 282 283 283 283 282 282 282 284 284 283 282 281 282 282 282 282 285 285 285 283 283 282 283 285 285 286 289 291 287 285 283 283
282 283 284 284 284 284 285 285 284 284 283 283 282 283 283 281 280 281 281 283 283 282 281 281 281 283 282 285 284 283 282 280 281 282 283 285 284 285 286 284 284 280 279
283 284 284 282 283 284 284 283 284 283 284 285 283 282 282 281 280 280 280 280 280 280 280 279 280 280 282 283 285 284 280 279 280 280 281 282 284 284 284 283 281 279 280
283 283 282 281 282 282 282 281 281 283 284 284 283 281 281 281 280 278 278 278 278 278 276 276 277 279 280 283 284 285 284 283 281 280 281 282 283 283 283 282 282 281 280
282 281 279 279 279 280 280 279 281 283 282 282 282 281 280 280 280 278 277 276 276 276 276 275 274 276 278 280 282 284 284 284 282 282 283 283 283 283 281 281 281 279 279
278 278 278 276 276 278 279 280 281 282 282 280 280 281 281 279 279 278 277 276 275 275 274 274 274 275 277 278 280 281 282 282 282 282 282 281 280 280 280 280 280 279 278
276 277 276 275 274 276 276 278 279 281 280 280 279 279 280 279 278 278 277 277 278 278 276 275 275 276 276 279 281 280 280 280 280 280 279 278 278 277 277 278 279 280 280
275 274 274 273 273 274 274 275 277 279 279 278 279 278 278 278 279 278 276 281 280 280 279 279 279 275 280 281 281 280 280 280 279 276 274 274 275 275 276 276 276 278 278

GFSMW_sfc_thetae_114.txt.gz
Theta_e
307 307 307 306 306 305 305 305 304 304 304 304 304 305 304 306 308 310 313 315 317 319 319 331 336 334 334 334 332 332 329 329 331 325 322 324 328 329 329 329 328 327 328
305 305 304 303 303 302 302 301 301 301 301 302 302 302 302 304 305 308 308 310 311 313 314 317 325 335 334 332 330 332 329 331 331 328 325 319 321 324 327 329 328 328 329
303 302 301 300 300 299 299 299 299 299 300 300 300 299 299 300 301 301 302 305 306 308 310 312 316 318 331 334 333 329 329 326 326 325 321 314 314 317 320 324 326 325 326
301 300 299 297 297 297 298 298 299 298 299 298 297 295 294 293 297 298 300 301 304 305 308 311 313 316 321 328 333 329 327 321 316 317 319 320 317 311 311 319 325 324 323
299 297 297 296 296 296 295 296 295 295 296 296 295 294 293 294 295 298 299 300 302 304 306 307 309 312 315 321 331 326 319 319 315 314 317 317 321 317 312 309 317 323 324
297 297 297 297 295 295 294 294 293 291 293 294 293 295 293 293 294 295 297 299 302 303 306 307 308 311 315 320 327 327 324 319 318 316 320 320 319 317 314 308 313 317 321
295 294 293 293 293 293 292 293 292 290 290 291 291 293 293 294 294 294 296 296 298 300 303 305 308 309 312 317 325 323 321 321 320 319 319 320 319 320 320 313 309 311 316
294 293 292 292 292 292 291 290 290 290 290 290 290 292 292 293 293 293 294 295 298 300 302 304 307 309 311 314 320 326 324 321 323 323 322 321 323 324 322 319 313 309 313
292 291 292 291 291 291 290 289 290 290 289 289 289 290 291 291 292 292 294 295 296 298 299 300 303 306 313 313 317 323 322 323 324 323 323 324 324 324 323 322 319 315 309
290 290 290 289 289 290 290 290 290 289 289 289 289 290 290 291 291 292 292 293 294 295 296 298 301 305 312 314 315 318 323 322 322 323 323 323 323 323 323 322 319 317 312
288 288 288 289 289 289 289 288 288 288 287 288 288 288 288 289 290 290 290 290 292 293 295 296 299 304 307 318 315 316 321 322 322 320 319 322 323 322 322 321 321 318 315
287 286 286 287 287 287 288 287 286 286 287 288 288 287 288 288 288 288 288 289 289 291 292 294 296 299 300 305 321 317 320 320 320 320 318 318 320 321 321 321 321 319 318
285 285 285 285 286 286 287 286 285 285 287 288 287 287 287 287 286 286 287 287 287 288 289 291 292 293 294 296 302 318 320 320 320 321 319 317 316 315 317 319 319 320 319
285 284 284 284 285 285 285 285 285 286 286 286 286 286 286 287 286 286 286 285 286 285 286 287 289 290 291 292 293 299 310 318 322 322 322 320 318 317 319 318 317 318 318
283 283 282 282 283 284 283 284 284 286 285 285 285 285 286 287 287 286 286 285 285 285 285 285 286 287 289 289 289 297 304 308 317 318 315 316 316 309 312 317 319 319 318
282 282 282 282 282 283 283 283 283 284 284 284 284 284 285 285 286 286 285 284 284 284 284 283 284 284 286 288 288 291 291 290 297 305 301 299 298 295 295 294 297 311 317
281 281 282 282 283 283 284 283 284 284 283 283 283 284 283 283 283 284 284 283 282 281 282 282 283 283 284 286 288 287 286 286 285 286 290 294 295 294 292 290 290 288 289
280 281 282 283 284 285 285 285 284 284 282 282 281 282 282 281 282 282 282 281 282 281 280 281 282 283 284 285 285 286 286 284 283 284 285 286 287 289 292 290 287 286 286
281 282 283 283 283 283 285 285 284 284 283 281 281 281 280 279 279 279 279 280 280 280 279 280 280 281 282 286 285 283 283 283 282 283 284 284 284 286 288 288 286 284 283
283 282 280 278 279 281 283 284 284 283 283 282 281 281 281 279 277 277 278 278 278 277 278 278 279 281 281 285 286 284 281 280 281 282 282 284 284 285 285 283 283 282 279
282 281 280 279 279 282 282 280 281 280 282 283 282 280 280 279 278 277 277 277 277 277 276 277 278 279 281 282 286 285 282 281 280 280 281 282 284 284 284 283 281 280 280
280 279 278 278 280 280 280 279 279 280 281 281 281 280 279 280 279 277 277 276 276 275 275 276 277 279 280 282 283 284 283 283 280 279 281 282 283 283 283 281 282 281 280
278 278 277 277 277 278 278 277 279 282 281 280 279 279 279 278 278 277 276 276 276 276 275 275 275 277 279 279 281 282 282 281 280 281 281 282 281 281 281 282 281 279 279
275 276 276 275 275 276 277 278 279 281 280 279 279 279 279 278 278 278 278 276 275 275 275 275 275 276 277 277 278 278 278 278 278 278 278 279 279 279 279 279 280 280 279
274 275 274 273 273 275 275 276 277 279 279 279 279 278 279 278 277 278 278 277 276 277 276 276 276 275 275 277 279 278 276 277 276 276 276 275 275 275 276 277 278 278 278
273 272 272 271 272 273 273 273 276 278 278 277 278 277 277 277 277 277 276 280 278 278 279 279 278 276 278 278 279 279 278 278 277 273 272 272 272 272 273 274 275 276 277

GFSMW_sfc_thetae_117.txt.gz
Theta_e
303 304 303 302 301 301 300 300 300 300 301 300 299 300 298 301 302 305 305 306 309 310 310 312 314 320 330 331 330 331 330 332 333 327 324 324 326 327 330 330 329 328 327
301 301 300 298 298 297 298 298 298 298 298 298 298 298 297 299 300 301 301 304 303 305 307 307 309 313 315 321 331 331 328 327 329 326 323 319 321 324 328 328 327 327 327
299 298 297 296 296 295 296 296 296 296 296 297 296 296 297 296 297 296 298 300 302 303 304 305 307 309 311 312 319 330 330 327 324 327 321 312 315 317 321 326 327 326 327
297 296 295 295 295 294 294 293 293 294 295 295 294 293 292 292 293 294 297 299 301 303 304 305 305 306 309 311 315 322 329 329 320 317 319 316 317 313 308 319 323 324 325
296 295 294 294 294 294 293 292 291 291 292 292 293 293 293 294 296 296 296 297 301 302 304 306 306 306 307 309 311 314 322 328 327 316 314 315 314 314 311 308 314 323 326
294 294 295 294 292 292 292 292 291 290 291 291 292 292 292 292 293 293 294 295 297 299 302 304 305 306 308 309 311 313 319 326 324 321 319 315 313 314 312 310 312 314 321
291 291 291 291 291 290 290 291 290 289 289 289 290 292 292 292 292 292 292 293 295 297 299 300 301 303 306 309 310 311 314 322 323 319 318 320 318 317 317 315 314 313 316
289 289 289 289 290 289 289 289 289 288 289 289 290 290 291 291 292 292 292 293 294 295 297 298 299 300 303 305 308 311 312 317 323 321 318 318 320 321 319 317 315 310 311
287 286 287 288 288 289 289 288 288 288 288 289 289 290 290 290 290 291 292 291 292 293 295 295 297 298 300 303 307 312 312 315 322 322 320 319 320 321 321 321 319 315 309
287 287 287 287 288 289 289 288 287 287 288 288 289 289 289 290 290 290 289 289 290 291 292 293 294 296 298 302 304 307 314 314 321 322 321 321 320 320 320 321 321 319 315
285 285 286 287 287 288 288 286 286 286 286 288 288 288 288 289 288 288 287 287 288 289 289 290 292 293 294 296 297 299 314 313 316 321 320 319 321 321 322 321 321 319 318
285 285 285 286 286 286 285 284 285 285 286 288 288 288 288 288 287 286 286 287 286 287 288 289 290 290 291 293 293 294 299 314 315 319 318 318 319 319 320 321 319 319 319
284 284 284 284 284 284 284 284 284 284 286 287 287 287 287 287 286 286 286 286 286 286 286 287 287 288 289 290 291 292 295 301 316 318 319 319 318 319 320 321 320 319 318
283 283 282 283 283 284 283 284 284 285 285 286 285 285 285 285 286 286 285 284 284 284 285 286 286 287 288 288 289 290 296 302 310 317 319 320 318 317 319 319 319 318 317
282 282 281 282 283 283 283 284 284 284 285 284 284 284 284 284 285 284 284 283 283 284 284 284 285 286 286 286 286 288 290 292 294 294 300 309 307 309 313 318 317 315 314
281 281 281 282 282 283 283 284 284 283 284 283 283 283 283 282 282 283 282 282 281 281 282 282 283 284 286 286 286 287 287 287 288 288 289 292 293 297 298 300 301 309 313
280 280 281 282 283 283 284 283 284 283 282 281 281 280 280 279 279 280 280 279 280 280 279 279 280 282 284 286 286 285 285 284 285 285 287 287 288 288 293 291 290 290 291
280 280 281 281 282 283 285 285 285 283 282 281 281 280 279 278 277 277 277 277 277 277 277 278 279 280 283 286 286 284 283 283 283 283 284 285 285 286 289 289 286 285 285
278 279 281 281 279 280 282 285 284 284 282 280 280 280 279 277 276 274 274 275 276 276 276 278 278 279 280 285 285 284 282 281 281 282 283 283 284 286 287 286 286 285 283
281 280 277 275 278 280 281 281 281 281 281 280 279 279 280 277 275 274 274 274 274 275 277 277 278 280 279 283 285 283 281 280 280 281 281 284 284 284 284 282 281 282 280
278 279 278 277 279 281 281 278 278 278 280 282 280 279 279 278 277 276 276 275 275 275 275 276 278 278 279 279 282 283 280 279 279 279 279 281 283 284 284 283 281 280 280
278 278 277 277 278 278 279 278 277 277 279 280 279 278 278 278 278 276 275 276 276 275 276 275 276 278 278 280 280 281 280 280 277 277 279 280 282 282 283 282 282 281 280
276 277 276 276 276 277 277 277 278 280 280 279 277 277 277 278 277 276 274 275 275 275 275 274 274 274 277 277 279 279 279 278 275 277 278 279 279 280 279 281 281 280 279
273 274 275 274 275 276 277 277 278 280 280 278 278 278 278 278 278 277 275 274 275 275 275 273 272 273 274 276 277 276 276 276 275 275 275 275 277 276 276 277 278 278 278
272 274 274 274 273 274 275 275 277 278 278 278 277 277 277 276 276 277 275 274 275 275 274 274 272 272 271 274 277 276 275 274 274 273 273 272 272 272 273 274 275 276 277
272 271 271 271 271 272 272 273 275 277 277 276 276 275 275 275 275 274 273 276 277 277 277 277 275 273 275 275 276 276 276 275 274 270 269 268 269 270 270 271 272 273 274

GFSMW_sfc_thetae_120.txt.gz
Theta_e
299 298 297 297 297 297 297 297 297 297 298 298 298 299 297 300 300 300 302 303 303 305 305 307 308 312 313 315 323 331 326 326 331 327 324 327 330 330 330 330 329 328 327
296 295 295 294 293 293 293 293 294 295 295 296 296 296 296 298 299 298 299 300 301 303 303 303 304 307 309 310 312 321 328 328 330 325 320 314 318 325 328 330 329 327 328
293 294 294 293 293 292 292 292 292 292 294 295 296 296 295 295 295 295 296 298 301 302 303 303 304 305 306 307 310 313 317 326 327 329 321 315 315 318 323 325 329 329 328
294 293 292 292 291 293 294 293 293 293 293 293 294 293 292 292 295 296 296 297 300 300 302 305 306 307 307 307 308 311 312 318 323 322 327 320 318 316 312 319 326 327 325
292 291 292 292 291 291 292 293 293 292 291 291 292 292 291 293 294 295 294 295 296 299 301 303 304 304 306 307 308 309 310 312 316 322 317 317 316 314 314 311 314 322 325
290 291 291 292 291 291 291 292 291 291 291 290 291 290 290 291 292 292 293 294 295 297 299 299 300 301 303 304 307 310 311 311 313 318 321 318 317 313 312 310 311 315 320
289 289 288 288 289 290 290 290 289 288 290 290 290 290 290 290 291 291 291 292 292 293 295 296 297 298 300 301 304 305 307 310 311 313 319 323 321 318 318 316 311 309 313
288 287 287 287 288 289 288 288 288 288 289 289 289 290 290 290 290 290 290 290 290 291 293 294 295 297 298 300 302 304 306 310 312 312 315 322 322 321 319 316 314 309 310
288 287 287 287 287 288 288 286 287 287 288 289 289 289 289 289 288 289 289 289 289 290 291 292 292 294 296 297 299 301 303 306 311 313 314 320 322 322 321 320 318 315 310
287 287 286 287 287 288 287 286 287 286 287 288 289 289 289 289 289 288 287 287 288 289 289 290 291 292 293 294 295 296 298 301 305 314 315 318 320 321 321 321 321 319 316
285 285 285 286 287 287 286 285 286 286 287 287 288 288 288 288 288 288 287 287 288 288 288 289 289 290 290 291 291 292 294 295 299 312 314 318 320 320 320 320 321 319 318
284 283 284 284 285 284 285 285 286 286 286 287 287 286 287 287 286 285 285 285 285 287 287 288 288 288 289 289 289 290 291 293 296 301 312 315 319 319 319 319 318 319 320
282 281 283 283 284 284 284 284 285 285 286 286 285 285 285 285 285 285 284 284 284 285 286 286 287 287 288 287 288 289 291 292 295 298 304 315 318 318 318 318 318 319 318
282 281 282 283 283 284 284 284 284 285 285 285 284 283 283 283 284 284 283 283 283 283 283 284 286 287 287 287 287 288 288 289 290 292 293 295 294 296 310 317 318 319 318
281 280 281 282 282 283 283 283 283 283 283 282 281 281 282 282 282 282 281 282 281 281 282 282 284 285 286 286 285 286 286 285 286 287 288 291 291 291 291 301 317 318 318
281 281 282 282 282 283 283 283 282 282 282 281 280 280 280 280 279 279 279 279 279 279 280 281 281 282 285 286 286 285 284 284 283 283 284 287 288 288 290 291 294 297 317
280 281 281 281 282 283 283 283 282 282 281 281 280 280 279 278 277 277 277 276 276 277 279 279 280 280 283 285 285 285 283 282 282 282 283 284 285 285 288 290 288 287 287
280 281 281 281 282 282 284 283 283 282 281 280 280 279 278 277 276 276 275 275 275 275 277 278 278 278 281 284 284 283 282 281 281 281 282 282 283 284 285 287 287 285 285
280 280 281 280 278 280 282 282 282 282 280 279 278 279 278 276 275 273 273 274 274 274 275 278 277 277 278 282 283 280 279 279 279 280 281 282 282 284 285 283 284 284 283
278 277 277 277 278 280 281 280 279 280 279 278 278 279 278 276 274 274 274 274 269 273 275 275 277 279 277 281 281 280 278 276 278 279 279 282 282 284 284 280 280 279 279
278 278 277 276 277 279 278 275 276 277 279 280 279 278 278 277 276 274 274 274 272 274 273 273 274 275 277 277 280 280 276 275 276 276 276 278 281 282 283 282 280 279 280
277 277 275 276 277 278 279 276 274 275 278 278 279 278 277 278 277 274 274 275 275 273 272 272 272 273 275 278 278 279 278 277 274 274 276 277 279 280 281 280 281 281 280
275 276 275 276 276 276 276 276 278 280 280 278 277 277 277 278 276 274 273 273 274 273 271 271 270 271 273 274 277 277 277 276 272 274 275 276 277 277 276 278 279 277 277
273 274 274 274 274 276 276 277 278 278 279 277 277 277 277 276 275 275 274 273 273 272 272 270 269 270 271 272 273 273 273 273 272 271 271 272 274 273 273 274 274 275 275
270 274 274 273 273 274 274 275 276 277 277 276 276 276 275 275 274 273 273 273 274 274 272 270 270 270 269 271 274 273 272 271 270 269 269 268 268 268 269 270 271 272 272
271 271 271 271 271 272 272 273 275 277 276 275 275 274 274 273 273 272 271 275 276 276 276 276 274 270 274 274 274 273 273 272 271 266 264 264 265 265 266 266 267 268 269

GFSMW_sfc_thetae_123.txt.gz
Theta_e
298 298 298 298 298 298 297 297 296 297 298 300 301 304 305 307 306 306 307 308 309 311 312 312 314 316 317 319 321 323 328 332 334 330 329 329 332 332 333 336 337 337 337
295 295 295 295 296 297 297 296 295 295 296 298 300 301 301 305 304 304 305 305 307 309 309 310 311 311 312 315 317 319 321 330 331 326 326 319 325 329 331 335 334 335 338
292 293 293 292 292 293 294 294 294 294 294 296 299 300 301 301 301 301 302 303 304 305 307 307 307 308 309 308 309 314 318 320 328 332 325 316 314 324 328 329 332 335 336
292 292 292 292 293 293 294 295 293 293 294 295 295 296 293 293 296 298 300 301 302 303 303 304 305 306 307 308 309 311 311 315 318 325 330 333 326 320 318 326 331 334 331
292 291 293 293 293 293 294 292 295 293 293 293 295 293 292 293 295 296 297 298 299 300 300 301 301 302 303 305 306 308 310 312 312 317 322 327 328 327 319 318 322 328 330
292 292 292 292 292 292 291 293 292 292 292 292 293 291 291 291 291 292 292 293 295 296 297 297 298 299 300 301 302 304 306 309 312 313 316 317 322 321 320 317 320 322 328
290 290 289 290 290 290 291 291 290 289 291 292 291 291 291 291 290 289 290 291 291 292 293 294 295 296 297 299 301 302 303 306 308 311 313 315 318 325 321 322 322 322 326
289 288 289 289 289 289 289 290 290 290 290 291 290 291 291 290 290 290 289 290 290 291 292 292 293 294 295 297 298 300 302 305 307 309 311 313 317 321 325 320 319 319 322
288 288 288 288 288 289 288 288 288 288 289 290 290 290 290 290 289 289 289 289 290 290 291 291 291 292 293 294 295 296 298 299 300 304 306 312 315 321 321 326 322 317 314
287 287 288 288 288 288 288 288 288 288 288 289 289 289 289 289 289 288 287 288 288 289 289 290 290 291 291 292 292 293 295 296 298 300 302 307 314 319 320 324 325 320 317
287 286 287 288 288 288 287 287 287 287 287 288 288 287 287 288 288 286 286 287 287 287 287 288 289 289 290 290 290 291 294 294 296 299 301 304 311 316 319 321 321 320 319
286 286 286 287 286 286 286 286 286 286 287 287 287 287 287 287 286 286 286 286 285 286 286 287 288 288 289 289 289 290 291 291 292 294 295 298 298 306 319 320 319 319 319
285 285 285 285 285 285 285 285 286 286 286 286 285 285 285 285 285 285 285 285 285 285 285 285 286 287 287 288 288 288 288 288 289 289 291 292 292 291 293 296 316 320 319
284 284 284 284 284 285 285 284 284 285 285 285 284 283 283 283 284 285 284 284 284 284 283 284 285 286 286 287 287 287 287 287 287 287 288 288 288 288 289 293 297 304 317
282 283 283 283 283 283 284 284 284 284 284 283 282 282 283 282 283 283 283 283 283 283 283 283 283 285 285 285 286 286 286 285 285 287 286 287 287 288 288 291 291 292 297
282 282 282 282 283 283 283 284 284 284 284 282 281 281 281 281 281 281 281 282 281 282 282 281 281 283 284 285 284 285 284 285 284 284 284 285 286 286 286 288 289 288 287
282 282 282 283 283 284 284 283 283 284 283 282 281 281 280 279 279 280 280 280 280 280 280 280 280 281 283 283 283 283 284 283 283 282 283 283 284 284 284 285 286 287 286
282 282 282 282 283 284 285 285 284 283 282 281 280 280 279 279 279 279 278 278 279 278 278 279 279 280 282 282 282 281 283 283 282 281 283 283 283 284 283 282 282 283 283
282 282 282 282 282 282 284 284 283 281 281 280 279 279 278 277 277 276 277 278 278 278 278 278 278 279 279 281 281 280 281 281 281 281 281 282 282 283 284 282 280 280 281
281 280 280 280 280 281 282 281 281 280 279 279 279 280 279 277 276 277 278 279 278 277 278 277 277 277 278 279 280 279 279 277 279 279 280 280 280 281 281 280 279 279 279
280 281 280 278 278 280 280 279 279 278 280 281 280 280 279 278 277 278 278 278 277 276 275 275 276 276 277 278 279 278 277 276 276 277 277 279 279 279 280 280 278 278 280
279 280 279 279 280 282 281 279 278 280 281 281 280 279 278 278 278 277 277 277 276 275 274 274 275 276 277 276 276 277 276 275 275 274 275 276 276 277 277 277 277 277 277
279 279 279 279 279 280 281 279 280 281 281 280 278 278 278 278 278 277 276 276 276 275 274 274 273 274 276 276 275 275 275 273 272 274 273 273 274 274 274 275 275 274 274
278 279 278 277 277 279 279 279 280 281 280 278 278 278 278 276 277 277 277 276 275 275 273 272 273 273 273 275 275 275 274 272 271 271 271 271 272 271 271 272 272 272 272
277 278 277 277 276 277 278 279 280 279 278 278 277 277 277 276 275 276 276 275 276 275 274 274 273 272 272 273 274 273 273 272 270 270 270 269 269 269 269 269 269 270 270
276 276 276 275 275 276 276 277 279 279 278 276 276 276 276 275 275 274 274 275 275 275 275 275 275 274 274 273 273 272 272 271 270 269 267 267 267 267 267 267 267 268 268

GFSMW_sfc_thetae_126.txt.gz
Theta_e
302 302 302 303 304 305 304 302 300 299 299 303 303 305 306 313 313 313 313 313 314 316 318 319 320 322 322 324 327 328 331 335 338 331 331 334 339 333 332 331 329 334 341
300 300 301 302 302 302 302 301 299 299 298 299 299 304 306 310 311 310 311 311 311 312 312 311 311 311 313 317 320 323 323 326 334 330 327 321 324 331 328 328 328 331 336
298 299 299 301 302 302 303 302 301 299 299 299 300 301 305 306 305 306 307 307 308 307 305 306 307 308 309 310 310 312 315 319 325 332 330 322 319 325 328 326 330 333 336
297 297 299 298 300 300 300 302 300 301 300 301 300 301 302 302 302 304 304 304 305 303 302 302 304 305 305 307 307 310 311 312 313 322 329 334 330 322 320 330 332 335 335
296 296 296 295 296 296 296 297 300 299 299 299 297 298 298 300 302 302 301 301 301 302 301 300 301 301 302 303 303 304 305 308 311 312 317 322 329 330 326 320 326 332 334
295 294 295 295 295 298 298 297 297 297 298 295 296 297 296 295 296 296 296 297 297 298 298 298 299 300 300 300 301 302 303 305 307 309 313 313 315 321 323 323 324 324 330
293 292 293 295 296 296 297 297 297 296 296 295 294 294 293 294 294 293 292 293 292 293 295 295 296 297 297 298 299 300 302 304 304 307 309 312 314 316 319 320 322 322 324
292 293 293 294 293 294 293 294 295 294 295 294 294 294 293 293 292 292 291 291 291 292 293 294 294 295 296 297 297 298 300 303 303 303 303 308 311 314 317 318 320 319 321
293 292 293 292 292 293 291 291 292 292 293 293 292 292 291 291 290 291 291 290 291 291 292 292 292 293 294 294 295 295 297 298 300 302 302 303 306 309 314 315 322 320 316
292 292 294 292 292 291 291 291 291 290 291 291 291 291 290 290 291 291 290 290 290 290 290 290 291 291 292 292 293 293 295 295 296 298 300 301 303 304 309 315 319 324 321
293 293 294 293 292 291 291 290 290 290 290 290 290 290 290 290 290 289 289 289 290 289 289 289 289 289 290 291 291 291 291 291 292 293 294 297 296 297 299 308 317 322 319
293 292 292 291 290 289 289 289 289 289 289 290 289 289 289 289 289 289 288 289 288 289 288 289 289 289 289 289 289 288 289 288 288 288 290 289 291 291 293 294 298 304 320
291 291 291 290 288 288 288 288 288 289 289 289 289 289 289 289 288 288 288 288 289 288 287 288 287 288 288 288 289 288 288 288 288 288 288 287 288 288 289 291 295 298 301
290 291 289 288 287 287 287 288 289 290 290 289 288 288 288 288 287 288 288 288 288 287 287 287 287 288 287 286 287 288 288 288 287 288 287 287 286 287 287 290 291 292 294
289 289 288 286 286 286 287 288 288 289 289 288 286 286 287 287 287 286 287 287 287 287 287 287 288 288 286 285 285 288 288 287 286 287 287 287 287 287 286 287 288 287 287
288 288 287 286 285 285 287 287 287 287 287 286 285 285 285 285 285 285 286 286 286 285 285 285 286 286 284 282 283 285 286 285 284 284 285 286 286 285 286 285 285 285 284
287 286 285 285 285 285 287 287 287 287 286 285 284 284 284 283 283 283 283 284 284 284 282 283 284 283 284 282 282 283 284 284 283 283 283 283 284 285 286 286 285 284 284
287 286 285 285 286 286 286 287 287 286 285 284 282 283 282 282 282 282 281 282 282 281 281 280 281 282 282 280 281 282 284 284 283 282 282 282 282 283 284 284 284 285 283
286 286 286 285 285 285 286 286 285 284 284 282 281 281 281 280 280 280 280 281 281 281 280 280 279 279 280 280 279 281 284 283 282 282 282 281 281 280 281 281 281 282 283
285 284 284 284 283 285 286 284 283 283 281 281 282 282 281 279 279 280 280 280 281 280 281 280 279 278 278 278 278 279 280 280 281 281 281 278 278 278 279 279 279 278 280
284 284 283 281 282 284 284 282 282 281 282 283 282 281 281 280 280 281 281 280 280 280 279 280 280 279 278 278 278 277 277 278 278 278 278 278 276 277 277 277 278 276 280
282 283 282 282 284 285 284 281 280 282 282 282 281 280 280 281 281 280 281 280 280 279 279 279 279 280 279 277 277 276 275 275 276 275 276 276 275 275 275 276 276 276 278
282 283 283 284 285 285 285 282 283 283 282 281 279 280 280 280 281 280 280 280 280 279 278 278 278 278 278 278 276 276 275 274 275 275 274 274 274 274 274 274 275 275 277
283 284 284 283 283 283 283 284 283 284 283 281 281 281 279 279 280 280 280 279 278 278 278 277 276 276 276 276 276 276 276 274 274 274 275 274 274 273 273 275 275 275 275
283 284 283 283 282 283 282 283 283 283 281 280 280 280 279 279 278 278 278 278 277 276 276 276 276 274 273 274 274 274 274 273 273 274 274 274 273 273 273 273 273 274 274
282 281 281 281 281 282 282 282 282 282 281 279 279 279 279 279 278 278 276 275 275 275 275 275 275 276 274 273 273 273 273 273 273 274 272 271 271 271 271 271 271 272 271

GFSMW_sfc_thetae_129.txt.gz
Theta_e
306 307 307 308 308 308 307 307 306 307 306 305 307 310 309 310 311 313 314 315 316 316 316 315 317 317 317 319 322 324 325 326 333 331 334 333 334 338 334 331 331 331 330
306 305 306 307 307 307 307 307 306 306 307 307 307 307 309 311 309 309 312 312 313 311 309 308 309 310 310 312 314 314 315 319 325 327 324 322 327 331 332 330 330 330 327
303 304 304 306 306 305 305 306 306 306 306 307 307 309 309 309 308 308 306 308 309 308 306 306 306 306 308 307 309 310 310 310 316 321 323 319 317 324 333 330 331 329 328
302 303 302 302 302 303 304 303 304 304 304 305 304 304 304 303 306 306 307 306 307 307 305 304 304 303 304 304 305 307 306 307 306 313 318 323 324 317 320 331 331 332 331
301 300 299 300 301 303 303 303 303 303 302 301 301 300 300 301 302 303 304 304 305 304 303 302 302 301 302 302 302 303 303 305 304 306 308 314 316 319 320 317 325 331 333
299 299 299 300 301 301 301 303 302 301 301 301 300 298 297 296 296 295 296 298 300 301 300 300 300 299 299 300 300 301 301 303 304 305 307 308 308 311 313 315 319 322 327
298 298 299 298 298 299 299 299 300 299 299 298 298 297 296 297 296 294 293 292 294 294 295 297 296 296 297 297 298 298 299 301 302 304 304 305 307 310 310 311 311 315 323
298 298 298 298 297 298 297 297 298 297 297 296 295 295 295 294 294 293 293 292 292 292 293 293 294 294 295 296 296 297 298 299 299 300 302 303 304 306 307 308 309 310 317
298 297 297 297 297 296 294 294 295 295 294 294 294 293 293 293 292 293 293 292 292 292 292 293 292 293 294 294 294 295 295 295 296 296 298 299 302 303 304 305 307 308 305
296 297 298 296 296 295 294 293 293 293 293 293 293 293 292 292 292 292 290 291 291 291 291 291 291 292 293 292 293 292 292 292 292 292 293 295 293 295 297 298 300 304 310
297 297 298 296 296 295 294 292 292 292 292 292 292 292 292 292 292 291 290 291 290 290 290 290 291 291 291 292 291 290 290 289 289 290 290 289 290 291 292 293 294 297 301
298 299 297 296 294 293 292 291 291 291 292 292 292 292 292 292 291 290 290 291 290 289 289 290 290 290 289 290 290 289 289 288 287 287 287 287 288 288 289 290 293 294 297
298 298 296 294 293 292 291 291 291 291 293 293 293 293 292 292 291 291 291 290 290 290 289 290 289 288 288 288 290 290 290 289 288 288 287 286 286 286 286 288 289 290 291
297 296 295 293 292 291 291 291 291 292 292 292 292 290 290 290 289 290 290 290 289 289 289 290 289 289 287 285 287 289 288 288 288 288 288 287 286 286 286 286 286 286 287
295 295 294 292 290 290 290 291 291 291 292 291 290 289 289 289 289 289 289 289 288 288 288 288 288 287 285 284 284 288 287 287 286 286 286 287 286 286 287 286 285 284 284
294 294 293 291 290 289 290 290 291 290 290 288 287 288 288 287 287 287 287 287 286 286 286 286 285 284 283 282 284 286 285 284 284 283 284 285 284 285 286 287 286 285 283
294 292 291 290 289 289 290 289 290 290 288 287 287 286 286 285 285 285 285 284 284 284 283 283 284 282 281 280 282 284 285 284 283 282 281 282 282 282 284 286 286 285 284
292 290 290 289 288 289 289 290 290 289 287 285 284 285 284 283 284 283 282 283 283 282 281 281 281 282 280 280 280 283 285 284 283 282 280 280 280 280 281 282 282 283 284
292 289 289 288 288 287 287 289 288 287 285 283 282 282 282 281 282 281 281 282 282 282 281 281 280 279 279 279 279 281 284 283 282 282 280 278 278 279 280 279 279 279 281
289 288 287 287 286 287 287 286 285 285 282 283 283 283 282 281 281 281 281 282 283 282 283 281 281 280 279 279 279 279 279 280 280 280 280 277 277 277 278 277 277 275 278
287 286 285 284 284 286 287 284 284 282 283 283 283 283 283 282 282 282 282 282 282 282 282 282 282 281 280 279 278 278 277 278 278 277 277 278 277 277 277 277 276 276 279
285 285 284 284 286 286 285 282 281 283 284 283 281 281 282 282 282 282 283 282 283 281 281 281 281 281 280 278 278 277 276 276 276 276 276 277 276 277 277 277 276 276 277
284 285 284 285 287 287 286 283 283 283 283 281 280 281 281 282 282 281 281 281 282 281 280 279 279 278 278 278 276 277 276 276 277 277 276 276 276 276 277 276 276 275 276
284 285 286 285 286 287 286 286 286 286 285 283 282 281 281 281 281 282 280 279 278 279 278 278 276 276 275 275 276 276 277 276 276 277 278 277 276 276 275 276 276 276 275
285 286 285 285 285 285 285 286 285 285 283 282 282 281 281 281 279 277 278 278 276 276 275 276 276 274 273 274 275 275 275 276 276 277 277 276 275 275 275 275 274 275 274
285 285 285 285 284 284 284 284 285 284 283 281 281 281 281 280 280 279 277 275 275 275 275 275 275 276 274 275 275 275 275 275 276 276 275 274 274 274 274 273 273 274 273

GFSMW_sfc_thetae_132.txt.gz
Theta_e
307 307 308 308 308 308 307 307 307 307 307 307 306 306 307 310 309 308 309 310 310 309 309 308 308 309 309 310 311 311 311 312 316 316 320 326 330 332 333 334 333 329 329
306 305 306 307 306 305 306 306 305 306 305 305 307 308 308 310 309 309 308 308 308 308 305 305 305 304 306 306 307 308 306 308 311 310 312 313 317 327 331 332 330 326 325
304 304 304 303 303 303 303 303 303 304 303 303 305 305 307 308 306 306 306 307 306 306 304 303 303 302 303 303 303 304 303 302 306 308 310 309 308 312 318 326 331 329 327
303 303 302 301 302 302 304 303 304 302 302 302 300 300 300 298 301 302 301 304 305 303 302 301 301 300 301 300 300 302 301 303 300 304 309 308 309 309 308 316 321 329 329
303 300 300 301 301 302 302 303 303 301 301 301 299 298 297 297 298 298 298 298 299 300 299 298 299 298 298 298 299 299 300 301 301 302 303 305 307 307 308 306 311 317 323
300 300 300 302 300 301 301 301 300 299 299 298 298 296 295 295 295 294 294 294 295 295 295 295 296 296 296 296 296 298 298 299 300 302 303 302 303 304 305 304 305 307 311
299 299 300 299 299 299 298 298 298 297 297 296 295 294 294 294 293 292 292 291 292 292 293 293 293 294 295 295 295 295 297 297 297 297 298 300 301 304 304 303 304 305 309
300 300 299 299 298 297 295 296 296 295 294 294 294 293 293 292 293 292 292 291 291 291 292 293 293 293 294 294 295 295 295 294 295 294 294 295 298 298 301 300 300 300 302
299 298 298 298 297 295 294 294 294 294 293 293 293 292 293 292 291 292 291 291 291 291 291 292 292 293 293 293 293 292 291 292 291 291 292 291 291 293 294 295 296 297 296
298 298 299 297 296 295 294 294 293 292 293 293 292 292 292 292 292 291 290 291 290 290 290 290 291 291 291 292 291 291 291 290 290 290 289 289 289 290 292 292 293 295 295
297 298 298 297 296 295 293 293 292 292 292 292 292 292 292 292 291 290 290 290 290 290 290 291 290 289 289 290 291 290 290 289 289 289 288 287 288 288 288 290 292 293 294
298 299 299 296 295 294 293 291 292 292 292 292 292 292 292 292 291 291 290 291 290 290 290 290 289 287 286 287 288 289 290 289 288 288 287 286 287 287 288 288 287 288 290
299 298 298 295 294 293 292 291 292 292 293 293 293 292 291 290 289 289 290 289 289 289 289 288 287 285 285 285 286 289 288 288 287 287 286 284 285 285 286 286 286 286 288
298 298 297 295 293 292 292 291 291 292 292 292 291 290 289 289 289 289 288 288 288 287 287 286 284 283 283 284 285 287 286 286 285 286 286 284 283 283 286 285 285 285 285
298 298 296 293 291 291 291 291 291 292 292 290 289 288 288 288 288 287 287 287 286 285 286 285 283 282 281 282 283 285 284 283 282 282 283 282 282 284 285 285 284 283 283
297 297 296 292 290 290 290 291 291 290 290 288 287 287 287 286 285 285 285 284 283 283 282 283 281 279 280 282 284 285 283 282 280 277 279 280 280 280 283 284 284 284 282
297 296 294 292 291 291 291 290 290 290 288 287 286 285 285 284 283 284 283 282 281 281 280 280 281 278 279 281 282 284 282 281 279 276 276 277 278 279 279 280 281 281 283
296 295 292 290 290 290 290 291 290 288 286 285 284 284 284 283 282 282 281 281 281 280 279 278 278 278 279 280 280 282 281 281 279 277 275 275 275 277 277 276 276 276 278
294 290 291 289 289 289 290 290 288 286 284 282 282 282 282 281 280 278 279 281 281 280 278 278 277 276 276 280 279 278 278 277 277 277 276 275 274 279 279 274 273 273 274
290 288 288 287 287 287 289 288 286 284 283 282 282 282 281 279 276 279 278 281 281 280 281 278 277 278 275 279 279 276 275 275 275 274 274 278 277 278 278 273 272 271 272
287 287 286 285 285 287 287 284 283 281 283 283 283 282 282 282 281 281 281 280 280 279 281 280 277 275 275 275 279 278 274 274 274 273 273 274 278 278 278 277 273 273 273
285 285 284 284 285 286 284 281 280 282 283 282 281 280 282 282 282 281 281 281 281 278 278 278 276 275 274 277 277 278 277 276 274 273 273 274 277 277 277 275 276 275 272
284 285 284 284 285 286 284 281 282 283 282 281 278 280 281 282 281 280 279 279 279 278 277 276 274 273 273 273 276 276 277 276 274 275 276 277 276 276 275 276 276 272 270
284 285 285 285 285 285 285 284 283 283 282 281 281 281 280 280 280 279 277 275 275 275 275 275 272 272 272 272 273 273 273 274 274 273 272 272 275 271 270 272 272 271 270
284 286 285 285 285 286 285 285 285 285 283 282 280 279 279 277 276 276 276 274 274 274 272 273 273 270 269 272 275 275 272 273 274 271 270 270 270 270 270 270 270 270 270
285 285 285 285 284 285 284 285 285 284 282 281 280 280 280 279 276 274 273 276 275 276 275 275 273 273 274 275 276 276 277 276 276 272 270 269 269 269 269 268 268 269 268

GFSMW_sfc_thetae_135.txt.gz
Theta_e
302 302 303 302 301 301 300 300 300 300 300 300 301 301 300 303 302 303 305 305 305 304 303 304 303 304 304 305 305 305 304 306 306 308 308 312 317 324 326 328 329 329 331
300 302 301 299 298 298 299 299 298 298 298 299 299 299 300 302 303 303 303 304 303 302 301 300 301 302 302 303 302 302 301 303 304 304 304 305 310 311 317 323 328 329 328
299 300 299 297 297 297 297 298 297 297 298 297 297 298 299 299 298 297 298 299 300 299 297 298 298 299 300 299 299 300 300 298 302 304 304 303 301 304 309 311 316 320 324
299 298 297 296 296 296 297 297 297 296 297 296 295 293 293 292 294 294 295 295 297 295 295 295 296 297 298 297 297 299 299 299 298 302 305 305 305 303 301 307 311 312 316
296 296 296 296 296 296 295 296 296 295 295 294 293 292 291 292 293 293 292 292 294 294 294 293 294 295 295 296 296 296 297 298 298 299 301 302 304 305 303 301 303 307 310
296 297 298 297 295 294 294 294 293 293 293 292 292 290 290 290 290 290 291 292 292 293 293 294 294 294 294 294 295 295 296 297 297 297 298 298 298 299 301 300 299 301 304
295 296 295 294 293 292 292 293 292 291 291 291 291 291 292 292 290 291 291 290 290 291 291 292 293 293 294 294 294 295 294 294 293 293 293 295 297 297 299 299 299 297 301
296 295 295 294 292 292 290 290 291 290 291 293 291 292 292 291 291 290 291 290 290 290 291 291 292 292 293 293 293 292 292 292 292 291 291 291 291 292 294 294 293 292 297
296 295 295 293 291 290 289 289 289 290 292 292 292 291 292 291 290 290 291 290 290 290 290 291 290 290 291 292 292 291 290 290 290 289 289 289 290 291 291 292 292 292 290
295 295 294 292 291 290 289 289 289 291 292 292 292 291 291 291 291 290 290 290 290 290 291 289 288 287 288 289 291 290 290 289 289 288 287 287 288 289 289 290 291 292 291
294 294 294 292 291 290 289 288 290 291 291 291 292 291 291 291 290 289 289 289 288 288 289 286 285 285 286 287 289 289 289 288 288 286 285 285 287 288 288 288 288 288 288
295 295 293 292 291 289 288 288 290 291 290 291 292 291 289 288 287 287 286 286 286 287 286 285 282 283 284 285 287 287 287 285 285 285 283 282 285 285 287 287 286 286 288
295 294 292 291 290 289 289 288 288 289 291 292 289 287 286 286 285 285 285 285 285 285 284 283 282 281 283 284 285 285 284 283 283 284 280 280 282 283 285 285 284 285 286
296 296 292 290 289 289 289 288 289 290 290 291 288 286 285 285 285 285 284 284 284 283 282 281 280 281 282 283 284 284 282 280 280 280 280 279 280 281 282 283 283 283 283
296 296 291 289 288 289 288 289 289 291 291 289 286 284 285 285 284 283 283 282 281 281 282 279 279 279 281 284 283 283 281 278 277 278 278 278 280 282 282 281 281 281 281
296 296 291 289 289 289 288 289 290 288 288 285 284 285 284 283 282 282 281 280 280 279 280 278 278 278 280 283 284 282 280 278 276 275 276 277 279 278 279 280 281 281 280
296 295 290 289 289 288 289 289 288 287 286 284 284 283 282 281 281 281 280 279 278 278 277 277 277 277 278 282 282 282 279 278 277 276 275 276 278 277 276 277 277 277 280
296 293 290 289 288 288 289 288 287 285 284 282 283 283 282 280 280 279 277 276 277 273 273 275 275 275 278 280 280 280 277 276 275 275 276 275 275 277 276 275 273 272 274
293 290 289 288 287 287 289 287 284 283 282 280 280 281 280 278 277 271 271 273 277 274 274 274 273 273 273 279 278 276 275 273 272 275 275 275 275 279 278 273 271 270 271
289 286 286 287 287 287 287 285 283 282 280 280 280 280 279 275 269 269 271 273 274 277 276 274 272 276 271 279 279 274 273 272 272 273 274 278 276 278 277 271 270 268 268
286 286 286 285 285 286 284 281 280 279 281 282 281 280 279 278 276 275 273 272 273 278 275 272 271 270 273 272 278 278 269 271 273 273 272 273 277 278 277 276 271 270 269
285 285 285 285 286 285 283 279 278 280 281 281 279 278 278 280 280 276 276 278 275 274 274 271 269 268 267 276 277 278 277 276 271 268 269 272 276 276 276 274 275 273 269
284 285 284 284 285 284 282 280 281 280 280 278 273 277 279 279 279 277 275 275 275 274 273 271 267 265 267 265 276 277 277 276 269 270 275 276 275 275 272 274 274 269 268
283 284 284 283 283 283 283 282 282 281 280 278 278 278 278 277 275 275 275 273 272 272 273 270 267 265 266 266 268 269 267 271 270 266 267 268 272 266 265 267 269 268 266
283 284 283 283 283 283 282 282 282 281 279 279 278 277 276 275 275 274 272 273 270 273 271 268 267 262 261 266 274 275 268 270 270 267 264 262 261 262 264 264 264 265 267
283 283 283 283 282 283 282 282 283 282 280 278 277 276 275 274 274 273 272 276 276 276 276 275 271 266 274 276 276 277 276 275 274 265 260 258 258 262 264 264 265 265 265

GFSMW_sfc_thetae_138.txt.gz
Theta_e
299 300 300 299 298 297 297 297 297 296 297 296 296 298 298 300 300 301 301 301 299 299 298 299 299 300 300 300 301 301 300 301 303 303 303 306 311 313 318 323 324 326 327
298 299 297 296 296 296 297 296 296 296 295 295 295 296 297 297 296 297 297 297 296 296 296 296 296 297 298 298 298 298 298 300 302 300 300 301 305 306 309 313 316 319 324
297 297 297 295 295 295 295 295 294 295 295 295 294 294 295 295 294 294 293 295 295 294 293 293 294 296 297 296 297 297 297 296 300 301 301 300 298 300 305 306 309 310 311
298 297 295 294 294 294 295 294 294 293 293 293 291 290 290 290 291 291 291 293 294 293 293 293 293 295 295 295 295 296 296 297 296 299 303 302 303 300 297 303 305 305 308
296 295 294 295 294 294 293 292 293 292 292 291 290 289 289 289 289 289 290 291 293 293 293 294 294 293 294 294 294 295 295 297 297 296 298 300 302 302 301 298 299 302 305
295 295 295 295 293 292 291 290 291 291 291 290 289 289 287 287 287 288 289 289 291 292 292 293 293 293 293 293 294 295 294 294 295 295 296 296 296 297 297 297 297 297 300
294 294 293 292 291 290 290 289 290 289 290 289 289 288 288 287 287 287 289 287 289 289 290 292 291 291 292 293 293 292 292 291 292 291 291 293 293 293 295 295 295 295 297
294 294 293 292 291 290 289 289 289 289 290 289 289 289 289 289 287 290 289 287 289 289 290 290 290 290 290 292 292 291 291 291 290 288 288 289 290 291 291 291 290 290 293
293 294 293 291 290 289 288 288 288 289 290 291 291 291 291 290 289 290 290 288 288 289 288 288 287 288 289 290 291 290 290 290 288 287 287 287 289 290 290 290 290 289 288
293 293 291 290 289 289 288 287 288 288 291 292 291 291 291 290 290 289 288 286 287 287 285 286 286 286 287 288 290 288 288 288 285 286 284 285 286 288 289 288 288 288 287
293 292 290 290 289 288 287 287 288 289 291 291 291 290 289 287 287 286 286 286 285 285 282 282 283 283 285 286 286 286 285 285 283 282 282 282 284 286 287 287 287 286 287
293 292 290 289 288 288 287 287 287 288 289 290 290 287 286 286 285 284 284 284 283 283 282 281 281 283 284 284 284 282 282 281 281 279 280 280 283 283 285 285 284 284 286
293 291 289 288 288 288 288 287 288 288 289 289 286 285 285 284 283 283 283 283 282 280 280 280 280 281 283 283 283 280 279 279 279 279 279 279 280 280 282 282 282 282 284
294 291 289 289 289 289 288 288 288 289 290 288 286 284 284 284 283 282 281 281 281 279 278 279 279 281 283 283 282 279 277 278 277 278 279 279 278 279 280 280 280 281 282
295 293 291 289 288 288 289 289 289 290 289 287 285 283 283 283 282 281 280 280 280 278 278 278 279 281 283 282 280 278 277 276 276 277 278 279 279 280 280 279 279 279 279
296 296 292 289 288 288 288 288 289 289 287 284 283 283 283 282 281 280 279 279 278 278 277 277 278 279 281 283 281 279 277 276 276 276 277 278 278 277 278 279 279 279 277
297 296 291 289 289 289 289 288 287 286 285 283 283 282 282 281 280 280 279 277 275 275 275 276 277 277 280 281 280 278 276 275 275 275 275 277 277 276 275 276 276 275 278
298 296 290 290 289 289 289 286 286 284 284 283 282 281 280 280 279 278 276 275 273 268 268 272 273 276 278 280 278 277 275 274 274 274 275 274 276 275 274 273 272 271 271
297 291 291 290 289 288 287 285 283 283 282 281 280 280 280 278 278 273 272 272 273 269 267 269 272 272 273 278 278 276 273 271 271 274 275 275 275 277 275 271 270 268 268
290 290 288 288 288 286 285 283 282 281 279 280 280 280 279 275 272 269 273 272 270 268 271 269 268 275 269 279 278 273 270 269 270 271 272 278 276 277 276 269 268 266 266
287 288 288 287 286 285 284 281 281 279 280 280 280 280 279 278 276 273 271 276 273 268 266 266 266 267 271 273 278 278 266 266 270 271 270 273 276 277 276 274 269 268 266
286 287 286 285 285 284 283 280 279 279 280 280 279 278 279 280 279 275 276 277 275 268 263 264 265 265 265 276 277 278 277 275 269 264 267 272 275 274 275 272 273 272 266
285 286 286 285 284 284 282 279 279 281 280 279 277 278 279 279 278 276 276 274 273 271 270 269 264 264 267 265 276 277 277 275 267 268 274 273 273 272 269 272 271 266 265
284 285 285 283 282 283 282 281 281 281 280 279 278 279 276 275 275 275 275 274 272 271 271 269 264 263 266 266 268 268 268 271 268 266 265 265 269 261 261 263 265 265 263
284 285 284 283 282 283 281 281 281 280 279 279 279 278 276 274 274 273 272 273 270 272 270 267 267 263 263 267 274 272 268 265 266 263 261 259 257 258 261 262 262 263 264
284 283 283 283 282 281 281 281 281 280 279 278 277 276 275 273 273 273 272 276 276 276 275 274 271 267 274 276 276 276 274 273 271 264 258 257 256 259 261 261 261 263 263

GFSMW_sfc_thetae_141.txt.gz
Theta_e
299 299 298 297 296 295 296 295 295 294 295 295 295 296 295 295 296 296 296 296 294 295 294 295 296 297 297 296 297 297 297 298 299 300 299 303 308 309 313 318 324 325 327
297 298 297 296 295 294 294 294 294 293 293 293 293 295 295 293 293 293 294 294 293 293 294 293 294 294 295 295 295 296 295 297 298 296 297 298 301 304 305 309 311 308 315
296 297 296 295 294 294 293 293 292 292 292 292 293 292 293 292 290 290 291 292 293 293 292 292 292 292 294 293 295 296 295 294 298 298 299 295 293 298 302 304 306 305 308
297 297 295 293 293 292 292 292 292 291 291 291 290 289 288 287 288 288 289 290 292 291 292 292 292 292 294 293 294 296 295 296 295 298 300 301 300 297 294 300 303 302 304
297 295 294 294 293 292 291 291 291 290 289 289 289 288 287 287 288 288 288 289 290 291 291 292 293 293 293 294 294 294 293 294 294 294 295 296 298 299 299 295 297 302 301
296 295 295 294 291 291 289 288 289 288 289 288 288 287 286 286 286 286 286 287 288 289 290 291 291 292 292 292 293 293 292 292 292 292 292 292 293 294 294 294 294 294 299
294 293 292 291 290 289 288 288 288 287 288 288 287 287 286 286 286 286 285 286 286 286 287 287 288 290 291 292 292 291 291 290 289 288 288 290 290 290 291 291 291 292 295
294 293 292 291 290 289 288 288 289 288 288 288 287 287 287 286 287 287 285 286 286 286 286 285 286 288 290 292 291 291 290 288 287 286 287 288 288 289 289 288 288 287 291
293 293 292 291 289 288 287 287 288 288 288 288 288 287 287 287 287 287 286 285 286 287 284 284 284 285 287 290 288 288 288 284 286 284 284 285 286 289 289 288 288 287 286
293 292 291 290 289 288 288 287 288 288 288 288 288 288 287 287 287 287 285 284 283 282 282 282 283 284 285 287 286 285 285 282 281 282 281 282 285 286 287 286 287 287 286
292 291 290 290 289 288 287 287 287 288 288 289 289 288 286 286 285 284 284 283 282 282 281 281 282 283 284 284 282 282 281 281 279 280 280 281 283 283 285 285 284 284 286
292 290 289 289 288 287 287 286 287 288 288 289 287 287 286 285 283 283 282 281 279 280 280 280 281 282 283 281 279 279 279 278 277 278 279 279 281 281 282 282 282 282 285
289 289 288 288 288 287 287 287 287 287 288 287 285 285 284 283 282 281 281 280 279 278 279 279 280 282 282 279 278 278 278 278 278 279 278 278 279 279 280 280 280 281 283
290 289 288 288 288 288 288 288 287 288 288 286 285 283 282 282 281 281 280 279 278 278 278 279 281 283 281 279 278 277 277 277 278 279 279 278 279 278 279 278 279 279 278
291 290 289 288 288 288 289 289 288 289 287 286 284 282 282 282 281 280 280 280 278 278 278 278 281 283 281 279 277 277 277 276 277 278 278 278 279 280 280 278 277 277 275
293 292 291 290 289 289 289 289 289 288 287 284 283 283 281 281 280 279 278 278 277 277 277 277 280 281 281 280 279 277 276 276 276 276 277 276 277 276 278 278 278 278 274
295 294 293 291 290 289 289 288 288 287 284 283 282 282 281 280 279 278 277 275 274 274 274 274 277 279 279 279 278 278 275 275 275 275 276 275 275 275 274 274 274 275 276
297 297 295 291 290 290 289 289 286 285 283 282 281 282 280 279 278 276 274 272 271 265 265 270 272 277 278 278 278 277 274 273 274 274 275 275 273 274 273 272 270 269 270
299 297 295 290 289 289 289 286 285 283 282 281 281 281 280 278 277 273 270 268 270 267 264 263 268 269 271 278 277 275 272 270 270 274 275 275 274 275 274 270 268 266 265
296 290 289 289 288 288 287 285 283 282 281 281 280 280 279 276 272 271 270 265 264 263 268 266 264 274 269 278 277 272 270 269 270 270 271 278 275 276 274 267 266 264 263
288 289 288 287 286 286 285 283 282 280 281 281 280 279 278 276 274 274 272 267 264 264 262 264 263 266 271 273 278 277 267 266 270 270 269 271 276 275 274 272 268 266 263
286 287 286 284 285 285 284 281 280 281 281 280 279 278 278 279 278 276 274 271 266 263 259 262 264 263 265 277 278 277 275 274 268 264 268 269 273 273 273 271 271 269 265
284 286 285 284 284 284 283 280 280 280 280 278 277 277 279 279 278 277 275 272 269 267 267 267 262 262 265 264 277 277 275 274 267 267 271 271 270 269 267 270 269 265 263
284 284 284 283 282 283 283 281 281 280 279 278 278 278 277 277 277 277 276 272 270 269 271 268 264 262 265 265 267 268 267 269 265 262 260 263 266 259 258 261 262 262 261
285 285 284 282 281 282 281 282 281 280 279 279 279 277 277 276 275 275 274 273 270 272 270 265 266 263 264 269 271 268 265 261 262 260 258 257 256 259 259 259 259 261 260
284 284 283 282 282 281 281 281 281 281 279 279 277 276 275 274 274 273 273 276 275 275 275 274 270 267 274 277 276 275 273 271 269 260 255 252 253 255 258 258 259 260 259

GFSMW_sfc_thetae_144.txt.gz
Theta_e
297 299 299 296 295 294 294 294 294 294 296 295 295 293 292 292 293 293 293 293 293 294 293 293 293 295 294 294 295 295 295 296 298 298 299 301 307 307 307 312 312 315 313
297 298 296 294 294 294 293 293 293 293 293 293 293 293 291 291 291 291 292 292 292 292 293 291 291 292 292 293 293 294 294 295 297 295 297 296 299 302 305 308 308 309 308
296 296 296 294 293 292 292 292 291 291 292 293 293 292 292 291 289 289 289 291 291 291 291 291 291 291 292 292 293 295 295 294 297 297 298 294 293 297 301 304 303 306 305
297 297 296 293 292 292 292 291 291 290 291 291 291 290 288 286 287 287 288 289 290 290 291 291 291 291 292 291 294 295 294 294 293 297 298 298 298 296 294 300 304 303 302
297 296 296 295 293 292 290 289 290 289 289 289 289 288 286 286 287 287 287 288 288 289 290 290 290 290 291 292 293 293 292 293 292 292 292 294 295 298 295 293 297 298 300
296 296 296 294 292 289 288 288 288 288 289 288 287 286 285 285 285 285 285 286 286 287 287 288 288 289 290 290 291 292 291 290 290 289 289 289 290 290 290 290 291 292 297
295 294 293 292 290 288 288 287 287 286 287 286 286 286 285 285 284 284 285 285 285 284 284 286 286 287 289 290 290 291 288 287 287 287 287 289 289 290 289 288 289 289 292
294 294 293 291 290 288 287 287 287 286 287 286 286 286 286 286 286 285 285 285 285 283 284 284 285 288 290 289 289 289 286 285 284 284 285 286 287 289 288 287 286 285 289
293 293 292 290 289 288 287 287 287 286 287 287 287 287 287 287 286 285 284 283 282 284 282 283 283 285 287 287 287 286 282 282 283 282 282 283 285 288 287 287 287 286 284
292 292 291 290 290 289 288 287 288 287 287 288 287 287 287 286 285 285 283 281 281 281 281 282 282 284 284 284 283 282 283 280 280 281 281 282 283 285 285 285 286 286 285
292 291 291 290 290 289 288 288 288 288 287 287 287 286 285 284 284 283 281 280 280 280 280 281 282 282 281 280 280 280 280 279 279 279 279 280 282 282 282 283 283 283 284
292 291 289 289 288 288 287 287 287 287 288 288 287 285 284 283 282 281 280 279 279 280 280 281 282 282 279 278 279 278 278 278 278 278 279 279 280 281 281 281 281 281 283
289 288 288 288 287 287 287 287 287 287 288 288 286 284 283 282 281 280 279 279 278 279 279 280 281 281 279 278 278 278 278 278 279 278 278 279 279 279 279 279 279 279 279
289 288 288 288 287 287 288 287 287 288 288 287 285 283 282 281 280 280 279 279 278 278 278 280 283 280 278 278 278 277 277 277 278 278 278 278 279 278 278 277 277 277 276
289 289 288 288 289 288 288 288 288 288 287 286 284 282 281 281 280 280 279 279 279 278 278 280 282 281 279 278 277 277 277 277 277 277 277 277 279 280 279 277 276 275 274
290 291 291 290 289 288 288 288 288 287 287 285 283 282 281 280 280 279 279 278 277 277 277 280 280 279 278 280 279 277 276 276 276 276 275 275 276 276 276 277 277 276 273
292 292 291 290 289 289 289 288 288 287 285 284 282 282 281 279 279 278 277 276 274 275 274 275 278 277 277 279 279 278 276 275 275 275 274 274 274 274 273 273 273 274 275
295 294 293 291 292 291 289 289 288 286 284 283 282 281 280 278 277 276 274 272 270 265 265 268 272 276 277 279 278 277 274 273 274 274 274 273 273 273 272 270 268 267 269
298 296 296 293 292 289 289 287 285 284 283 282 281 281 279 277 276 272 270 270 270 266 262 262 267 270 273 278 277 275 272 271 271 274 275 274 273 274 273 269 267 266 265
293 296 294 291 289 288 288 286 284 283 282 281 281 280 279 276 272 270 269 263 263 263 268 266 263 274 266 278 277 272 272 270 271 271 272 277 274 275 273 267 265 263 263
288 292 290 288 287 288 287 285 284 282 282 282 281 279 278 275 273 271 269 264 263 263 261 263 261 265 271 274 277 275 269 269 270 269 269 271 275 274 273 271 267 265 262
285 287 287 288 288 288 287 284 283 282 282 281 280 278 277 277 275 272 270 268 264 262 260 261 264 263 264 278 277 276 274 272 268 266 267 269 273 273 272 269 269 267 262
285 285 285 285 285 286 286 283 281 281 280 280 278 277 278 278 276 272 269 268 267 268 266 267 262 261 263 267 277 276 275 273 266 265 270 270 269 268 265 268 267 262 260
284 284 283 282 282 283 284 281 281 281 280 278 278 278 278 277 276 274 273 270 269 269 270 267 264 261 263 265 266 265 266 268 263 261 259 262 263 258 257 260 261 260 259
284 283 282 282 282 283 281 282 281 280 279 278 279 278 278 277 276 275 273 272 271 272 269 265 267 266 262 263 268 266 263 261 262 258 257 257 256 258 258 257 258 259 259
284 283 282 282 281 281 281 281 281 280 279 278 278 278 277 276 274 274 274 276 275 276 275 274 271 268 273 275 275 274 272 270 268 259 255 253 254 256 258 258 258 259 258